GFSCGP_sfc_dewp_057.txt.gz
Dewpoint
27 21 18 17 22 24 26 30 32 35 44 50 50 52 59 61 60 60 60 60 60 61 62 63 63 63 63 64 64 63 64 65 68 68 67 67 67 68 69 67 70 70 71 72
27 22 21 19 22 22 23 23 27 32 37 48 49 49 58 61 60 60 61 61 61 61 61 62 62 62 62 63 64 63 63 65 67 67 67 67 66 67 68 67 68 70 70 72
28 28 24 23 20 23 22 22 23 29 35 41 43 49 55 58 61 61 61 62 61 61 60 61 61 62 62 63 64 64 63 64 67 67 68 69 68 67 67 66 66 71 71 72
28 29 28 24 23 22 21 24 24 26 31 30 45 44 52 54 58 56 59 61 61 61 61 61 61 61 62 62 65 64 64 64 66 67 66 66 64 64 64 66 66 69 71 71
24 27 26 26 24 26 24 28 28 27 29 30 34 44 48 52 53 54 55 58 60 61 62 61 61 61 62 62 64 65 65 65 65 67 65 66 65 64 67 66 65 66 71 71
21 24 28 26 29 30 31 28 29 30 29 27 28 30 31 48 50 52 54 55 57 59 60 61 62 61 62 62 63 64 65 65 66 67 67 66 65 66 66 66 65 65 68 71
33 24 25 28 28 33 32 27 25 24 24 24 28 28 29 48 50 52 52 53 55 57 58 58 61 61 62 62 62 63 65 66 66 68 68 67 66 66 66 66 66 64 66 68
31 24 24 25 27 31 32 28 26 23 24 24 25 25 28 40 50 52 51 52 53 55 56 55 58 61 62 62 62 63 65 66 67 68 68 68 67 67 66 66 65 65 65 68
32 31 33 31 26 30 32 30 30 24 21 22 25 23 25 34 44 50 52 51 52 54 55 52 56 58 61 62 62 62 65 66 67 67 68 68 68 67 66 66 66 64 66 68
34 30 33 33 30 25 32 30 29 24 20 16 17 17 26 26 34 44 49 51 51 53 55 53 53 57 59 61 62 62 64 65 66 67 68 68 68 68 67 67 65 66 65 67
35 34 31 34 26 23 24 29 28 28 24 24 15 18 21 24 28 42 46 50 51 53 53 54 54 56 58 60 62 63 63 64 65 67 67 67 68 68 68 67 67 67 68 67
37 37 33 33 35 35 33 26 24 28 24 17 19 21 20 21 23 27 43 48 50 52 52 53 54 55 57 60 62 63 63 63 64 66 67 67 68 69 70 69 67 67 68 69
38 36 28 28 27 28 24 25 27 24 21 18 22 23 20 22 23 23 25 33 47 53 52 52 53 55 57 58 61 63 64 64 64 65 67 67 67 67 68 70 71 69 67 67
39 36 31 27 28 31 28 28 27 22 22 18 17 20 19 18 20 24 26 28 35 51 51 52 54 55 56 57 60 62 64 65 65 65 66 68 68 69 68 67 68 71 71 69
37 32 32 31 31 30 29 28 27 27 19 19 18 16 17 19 21 24 36 34 31 45 50 53 54 55 56 57 58 61 63 65 66 66 67 67 69 70 70 70 69 68 69 71
37 31 33 28 28 28 27 27 28 29 22 15 15 16 20 24 41 46 43 35 35 46 52 54 55 55 55 56 57 59 62 64 66 66 67 68 68 70 70 71 71 71 69 69
35 34 29 24 27 28 30 31 32 31 35 31 18 26 28 50 53 54 54 46 40 49 52 54 55 55 55 56 57 58 61 63 66 67 68 68 69 69 70 71 72 72 71 70
32 34 30 25 26 29 32 37 35 32 32 34 37 39 50 53 53 52 55 57 57 52 52 53 54 55 55 56 57 57 60 62 65 67 68 69 70 71 71 71 72 72 73 72
35 36 27 25 27 31 33 36 37 35 31 32 37 45 51 52 52 50 51 56 58 61 61 57 56 57 57 57 58 58 60 61 64 66 67 69 70 70 71 72 72 72 73 73
34 36 34 29 33 33 35 37 39 38 31 37 35 38 44 48 48 48 47 54 55 59 63 66 63 60 59 59 58 58 59 60 61 65 67 68 70 71 71 72 72 72 73 73
34 34 32 32 34 37 37 37 38 32 34 37 38 37 39 42 44 44 44 43 49 54 57 66 68 70 69 62 59 58 59 60 61 62 64 67 70 70 71 72 72 73 73 73
34 32 33 36 34 34 37 40 34 35 37 37 36 36 38 41 44 43 43 43 43 46 52 57 61 64 69 71 65 65 65 64 66 65 64 65 66 69 71 72 72 72 73 73
32 35 34 32 36 40 41 44 39 37 36 37 37 37 37 37 42 42 42 43 43 44 46 54 54 55 60 67 71 70 70 71 69 69 68 68 69 68 67 70 71 72 72 71
34 36 34 33 36 34 34 37 39 40 40 40 40 40 38 37 42 40 42 42 43 43 43 46 55 54 56 59 65 70 70 70 69 69 70 69 70 70 71 71 70 70 71 71
36 37 35 33 34 37 36 39 41 43 43 43 42 42 40 37 39 40 42 42 43 42 43 46 49 56 55 57 58 64 69 69 68 68 69 69 70 69 70 69 67 71 72 69
39 38 35 35 39 39 39 40 42 44 44 43 43 42 42 40 40 40 41 43 44 42 45 48 50 55 56 56 57 60 65 68 68 67 67 68 69 70 69 66 60 48 48 47

GFSCGP_sfc_dewp_060.txt.gz
Dewpoint
28 25 21 22 21 26 28 29 30 34 40 49 49 49 60 60 57 57 58 58 58 59 62 63 64 66 66 66 66 66 66 67 68 68 68 68 68 69 70 69 71 71 72 73
26 24 23 21 20 24 25 24 25 29 36 47 48 48 59 60 59 58 57 58 58 59 61 62 63 65 65 66 65 65 65 66 68 68 69 68 68 69 70 69 71 71 72 73
25 24 23 19 19 18 21 24 23 27 33 48 48 48 56 60 61 61 60 60 59 59 61 62 62 64 64 65 66 64 65 66 68 68 69 69 68 68 68 68 68 70 71 72
29 30 25 20 18 20 18 21 25 24 28 30 44 38 50 57 59 60 60 61 60 60 61 62 62 62 63 64 65 66 65 66 67 68 68 68 67 66 67 68 68 70 72 72
30 29 29 21 19 20 17 23 23 24 28 30 33 42 44 54 57 59 60 60 61 61 61 61 61 62 63 64 64 65 66 66 67 68 68 68 67 66 67 67 68 68 72 72
23 23 27 28 27 23 25 28 27 28 28 26 26 35 32 50 53 55 59 60 61 61 61 61 61 62 63 63 64 65 66 66 66 68 68 68 67 66 67 67 66 67 69 71
32 30 25 24 27 26 27 24 24 24 25 23 26 26 29 40 51 52 54 57 58 61 62 61 61 61 62 63 63 65 66 65 66 67 67 67 67 67 67 67 66 66 67 69
30 22 29 31 25 27 27 26 25 23 23 20 27 27 30 32 46 50 52 54 56 59 61 62 62 62 62 63 64 65 66 66 66 66 67 68 68 67 67 68 67 67 66 68
31 30 32 31 33 31 29 28 28 25 26 24 23 28 29 32 32 41 49 52 53 55 58 60 61 62 62 62 63 64 65 66 66 66 67 68 68 68 67 68 68 68 68 67
34 26 31 33 34 32 28 32 29 27 24 20 23 23 28 29 32 38 47 52 52 54 56 57 59 60 62 63 63 64 65 65 66 67 67 67 68 68 68 68 68 68 67 69
33 31 27 33 31 27 26 25 30 30 27 24 19 21 25 30 32 32 43 51 52 52 54 55 56 58 61 63 63 63 64 65 65 67 67 68 68 68 68 68 68 68 68 68
36 33 29 31 33 34 34 32 28 30 28 25 25 26 26 28 30 31 33 47 52 53 53 54 55 55 58 62 62 63 63 64 65 67 68 68 68 69 68 68 68 68 68 68
36 34 26 25 28 31 31 29 28 27 27 26 27 28 26 25 25 26 29 41 51 53 54 54 55 55 55 60 62 63 63 63 65 67 67 68 68 68 68 68 69 69 69 69
37 32 30 25 25 29 28 29 30 27 25 27 28 28 23 26 25 27 29 31 39 53 54 54 55 55 56 59 62 63 63 63 64 65 67 67 68 68 69 69 70 69 69 69
34 29 30 30 30 30 30 29 29 28 27 25 28 25 26 25 26 29 31 39 38 38 54 54 53 55 57 59 62 63 64 64 64 65 66 67 68 69 69 69 70 71 70 69
36 25 31 29 30 29 28 29 28 28 28 28 29 24 36 37 42 52 55 55 50 40 38 53 54 55 56 58 61 63 64 65 65 65 65 68 69 69 69 69 69 69 71 72
33 30 30 24 26 26 25 27 29 33 33 34 25 33 41 50 53 52 53 56 57 55 41 44 53 55 56 58 61 63 64 66 66 66 67 67 68 69 70 70 70 70 69 69
32 31 33 25 25 25 34 38 34 33 34 36 36 43 48 52 52 50 48 52 57 60 54 52 53 55 56 58 59 62 64 66 67 67 67 68 69 69 70 71 71 71 71 70
35 35 30 23 26 32 35 36 36 36 33 35 36 38 42 50 53 51 44 45 51 60 64 57 56 57 58 59 60 62 63 65 67 67 68 69 69 69 70 70 71 71 72 72
36 35 32 32 28 34 37 36 38 39 30 35 35 35 38 50 44 41 43 45 48 57 66 63 59 59 58 60 59 61 62 64 66 67 68 69 70 70 71 71 71 72 72 72
31 32 28 29 32 38 37 39 38 33 33 37 37 36 37 40 43 42 42 42 46 53 56 66 69 68 64 61 60 61 62 62 65 67 69 70 71 71 71 72 72 72 72 73
32 30 32 33 33 34 40 39 33 36 38 37 39 39 37 40 42 41 41 42 46 48 52 56 63 66 69 65 62 62 63 65 66 67 68 70 70 71 71 72 72 73 73 73
32 34 33 33 34 39 41 40 39 40 38 39 40 41 40 37 40 41 42 42 47 49 51 55 55 61 64 70 70 69 70 68 68 66 67 68 70 71 71 72 72 72 73 73
36 38 34 35 37 40 41 40 41 43 43 43 43 42 41 38 40 41 43 43 44 47 49 53 55 55 56 59 65 68 70 70 71 70 70 70 69 69 70 72 72 72 72 72
37 38 35 36 38 41 41 43 42 43 44 44 44 43 42 40 40 42 43 44 44 46 48 50 51 51 53 56 57 59 65 69 69 69 70 71 72 71 72 71 70 71 73 69
41 39 36 36 40 41 41 44 43 43 44 46 45 44 44 43 41 43 43 45 46 46 48 49 50 51 52 53 54 57 59 64 67 68 69 69 71 72 71 70 66 49 50 48

GFSCGP_sfc_dewp_063.txt.gz
Dewpoint
31 22 22 19 23 22 25 27 21 32 32 42 44 46 55 58 59 58 59 60 60 60 62 63 65 66 67 67 69 69 70 71 69 69 68 68 68 70 70 70 72 74 73 74
26 21 20 21 21 21 21 26 26 29 35 46 43 44 49 58 58 59 59 59 59 60 61 63 64 65 66 68 69 69 70 71 70 68 70 69 70 70 71 71 73 73 73 75
27 25 25 21 20 20 20 19 22 26 29 40 42 42 50 57 59 59 59 60 59 60 60 62 63 64 65 67 69 69 71 71 71 71 70 71 71 71 70 70 70 72 74 74
32 31 25 23 19 19 18 21 21 23 27 29 40 35 46 53 58 59 58 58 58 59 60 61 62 63 64 66 68 70 71 71 71 72 71 72 68 67 68 70 70 71 73 73
31 30 28 24 21 20 17 18 18 21 24 27 29 36 37 50 54 57 58 59 58 58 59 60 61 63 64 66 67 68 70 72 72 72 72 70 71 69 69 69 72 73 74 74
27 26 30 29 26 22 20 23 20 19 16 16 27 30 35 44 50 55 58 59 60 59 59 61 62 63 63 65 66 67 70 72 72 72 72 73 72 71 69 69 68 68 69 71
30 27 24 25 28 25 21 18 17 20 18 12 16 26 31 37 48 49 54 58 60 61 61 61 62 62 64 65 66 67 71 71 72 71 72 72 73 73 72 71 68 69 67 69
24 17 30 32 26 25 26 23 18 19 16 12 17 24 28 33 34 49 52 56 59 61 62 62 63 63 65 66 67 68 70 71 71 71 72 73 74 69 69 71 68 67 66 67
29 26 30 31 33 31 26 25 22 19 26 22 15 23 27 33 34 35 43 52 57 60 61 62 63 63 64 66 67 68 70 71 71 71 72 72 73 72 70 73 72 68 71 67
29 7 19 30 31 31 31 28 24 24 21 20 21 23 19 29 33 36 36 42 51 56 59 61 62 63 65 65 67 68 69 71 71 70 71 70 72 72 72 72 72 72 71 71
29 23 7 18 24 27 30 26 29 27 26 20 18 21 29 29 35 34 37 40 47 51 55 58 62 64 65 65 65 67 68 69 70 70 71 71 71 71 71 70 71 72 72 72
33 29 16 11 11 27 29 31 30 28 29 29 25 23 27 33 31 34 36 39 45 51 52 56 58 62 64 65 65 65 66 67 68 70 71 71 72 72 70 71 71 71 72 72
36 31 16 8 20 30 26 28 30 30 27 31 28 26 33 35 35 34 35 37 45 53 54 56 57 61 63 65 66 66 66 65 66 69 68 70 71 71 72 72 72 71 72 72
38 33 20 2 15 20 25 28 29 28 26 26 29 32 34 33 34 36 37 37 37 51 54 57 58 59 63 65 67 67 66 65 66 67 68 70 71 72 71 72 73 72 72 72
35 27 26 22 20 20 24 25 26 27 29 28 27 31 34 36 36 40 42 40 43 42 54 58 57 60 62 64 67 67 67 68 67 68 68 70 71 72 73 73 73 72 72 72
36 26 28 22 17 22 22 25 27 27 27 29 30 31 35 40 50 45 51 53 53 54 49 55 59 61 62 62 65 67 67 67 68 69 69 71 72 72 73 73 73 73 72 72
33 29 24 14 19 28 24 24 26 27 31 30 30 32 43 43 52 51 51 52 53 56 59 57 54 62 62 62 64 66 67 68 69 69 70 71 72 72 73 73 73 74 74 73
32 31 29 20 20 18 21 32 28 29 36 36 38 41 45 50 52 51 50 50 52 55 58 62 61 52 61 60 61 66 66 69 69 69 70 71 72 72 73 73 72 73 72 73
32 33 26 21 22 26 36 36 31 33 34 36 38 40 43 49 54 53 47 48 51 55 60 63 65 50 60 60 65 67 67 68 69 69 70 71 72 72 73 72 73 73 72 72
34 35 32 26 26 29 38 38 39 39 34 37 38 40 41 49 48 48 45 46 51 56 61 66 62 55 58 62 63 67 67 68 69 70 70 71 72 72 72 73 74 74 73 72
31 32 28 26 26 29 39 39 40 37 34 38 40 40 41 42 42 43 45 51 55 59 62 67 61 60 65 65 66 67 68 68 69 69 70 72 72 73 73 74 74 74 74 74
29 29 28 29 27 26 38 39 37 38 38 40 41 41 40 41 42 43 45 48 51 55 58 65 67 64 64 66 68 68 69 70 71 71 71 73 74 72 71 74 74 74 74 74
32 35 34 35 35 39 40 42 43 43 41 43 43 42 42 40 42 45 46 47 46 47 48 53 60 62 65 70 68 67 70 70 72 72 73 73 74 73 74 74 74 72 74 71
36 38 35 36 38 39 41 43 43 44 44 45 44 44 43 41 43 45 48 49 49 46 46 46 49 52 56 60 63 67 71 71 70 71 71 72 72 73 73 72 71 71 71 71
38 39 36 36 38 41 42 42 45 44 44 45 46 45 45 44 42 45 47 51 51 52 51 47 47 49 51 56 58 58 63 72 71 70 69 70 69 72 71 72 71 71 73 69
41 38 35 35 41 43 42 46 47 45 45 45 46 46 47 47 44 45 47 48 49 53 53 49 49 49 51 53 55 56 58 61 68 70 71 71 73 71 70 69 70 51 53 51

GFSCGP_sfc_dewp_069.txt.gz
Dewpoint
34 31 24 26 26 19 13 12 10 15 24 32 33 44 57 53 53 55 57 58 57 58 59 60 60 60 59 60 62 65 68 73 69 66 66 66 64 67 71 66 71 73 71 71
28 24 25 22 21 20 16 15 13 11 18 24 34 39 50 52 53 55 57 58 58 58 59 60 60 60 60 61 63 68 70 74 71 67 68 67 68 65 66 66 72 72 72 73
28 23 24 22 20 18 18 17 16 15 15 24 26 38 44 52 53 53 56 58 58 57 59 59 60 61 61 61 64 69 72 73 73 71 69 69 69 71 66 71 68 71 71 72
23 23 22 22 19 19 18 18 18 14 15 19 26 26 42 47 51 51 53 56 56 58 58 59 60 61 61 62 63 69 72 74 73 74 69 73 66 65 64 67 66 69 72 71
24 22 21 22 21 19 19 19 17 15 14 17 24 24 32 45 48 50 51 54 55 57 57 58 60 62 62 62 62 65 72 74 74 73 73 69 71 65 64 64 74 76 76 72
22 25 24 20 22 23 22 19 19 17 13 12 15 19 26 36 46 47 49 51 55 56 57 57 59 62 62 62 63 63 71 74 75 74 73 74 73 72 64 67 67 66 67 69
12 16 22 28 23 23 23 22 19 18 15 12 13 10 24 29 36 42 47 50 53 55 57 58 58 60 63 63 64 65 71 74 75 74 73 74 75 75 75 73 66 68 63 64
9 9 12 20 25 23 23 20 19 22 16 13 15 12 12 24 31 36 43 48 51 53 56 58 59 60 62 64 67 68 72 74 75 74 74 74 75 67 68 72 65 63 62 64
10 9 18 19 19 23 24 23 20 17 19 15 12 15 15 15 20 31 39 45 50 52 53 57 58 59 61 64 67 69 72 74 75 74 75 76 75 72 68 73 75 68 71 64
17 19 16 17 25 28 24 25 21 19 22 22 17 19 14 20 19 26 37 42 46 51 53 54 56 59 61 62 65 68 71 74 75 74 74 74 75 75 73 74 76 73 74 73
13 15 15 16 23 21 22 24 27 22 19 19 18 17 22 23 22 22 29 41 43 46 50 53 55 58 61 62 63 65 69 72 73 73 74 74 74 74 73 73 74 75 76 76
20 13 14 9 8 12 14 20 22 25 27 20 20 19 23 23 22 24 26 30 35 42 47 51 53 57 59 62 62 63 65 67 71 73 74 74 75 74 73 71 73 75 76 77
25 20 15 15 9 10 18 21 21 19 22 28 20 20 31 28 28 29 26 30 36 39 43 48 50 57 60 61 65 64 64 64 67 71 71 73 74 74 73 74 74 75 76 77
28 24 21 11 17 14 13 13 21 22 22 21 24 25 26 31 31 32 34 34 31 38 41 44 48 52 59 63 67 68 65 64 65 67 68 72 74 74 73 75 76 75 76 77
28 23 22 19 18 16 14 14 19 24 28 27 26 28 32 32 33 34 37 39 38 39 40 44 44 47 56 64 68 69 66 68 67 69 69 71 74 75 76 75 76 76 76 76
28 29 27 24 22 17 14 13 12 13 19 23 26 30 34 35 38 39 39 43 44 47 45 45 47 49 52 57 67 69 69 69 69 70 70 72 75 76 76 75 75 76 76 77
36 32 30 25 20 18 16 15 13 12 13 16 18 27 33 35 36 39 41 49 50 50 50 52 53 53 56 55 64 67 70 70 71 72 72 73 75 76 76 75 76 76 77 77
34 36 35 29 22 19 16 13 9 15 21 13 17 20 27 32 35 37 40 49 52 53 54 55 54 54 53 55 56 65 67 71 72 72 74 74 75 76 77 76 76 77 77 77
28 34 35 28 20 17 15 14 29 33 31 33 28 22 19 29 33 36 38 42 53 54 56 58 58 57 58 57 56 65 67 70 71 72 74 74 75 76 77 76 77 77 77 76
25 27 36 29 25 19 18 31 34 35 25 31 28 26 20 28 28 34 43 53 55 57 59 60 62 62 61 61 59 61 67 71 71 73 73 75 75 76 76 77 78 78 77 76
35 35 32 30 28 25 23 32 29 28 28 44 44 35 31 34 39 46 52 53 55 56 59 63 65 67 67 64 64 65 66 68 72 71 73 75 76 77 78 78 78 78 77 75
32 34 33 31 28 26 33 33 29 37 42 42 46 46 44 44 49 49 50 52 53 55 59 63 66 69 70 66 70 70 69 71 75 74 74 75 77 74 74 78 78 78 78 78
33 37 36 33 30 39 40 40 40 42 43 42 44 46 46 44 46 46 49 51 52 52 53 60 63 65 66 71 68 69 76 74 76 75 75 76 76 76 76 77 78 75 77 72
37 38 36 36 35 39 41 41 42 42 43 44 46 46 46 44 46 46 46 48 49 53 53 53 57 59 59 62 66 72 72 75 75 75 76 76 76 76 76 73 73 72 71 71
37 38 35 37 37 39 41 42 44 43 43 45 47 47 47 46 46 46 46 48 50 51 52 54 55 55 56 60 61 63 64 71 74 74 73 74 72 74 74 73 71 71 72 67
41 37 34 35 39 38 40 43 46 47 47 47 47 47 47 47 47 48 49 49 51 53 54 54 56 55 55 57 58 59 61 63 73 73 72 70 70 71 70 70 71 55 58 54

GFSCGP_sfc_dewp_072.txt.gz
Dewpoint
38 33 32 31 28 26 19 15 10 10 18 25 35 45 52 55 54 58 56 56 56 57 59 60 60 61 60 61 65 69 70 73 71 71 70 71 71 73 73 73 76 77 74 76
29 31 32 27 25 25 24 20 14 13 9 19 27 36 53 55 57 56 56 56 56 57 59 61 61 61 61 62 66 68 70 73 71 72 73 72 73 70 72 72 75 75 75 77
29 24 26 25 23 22 22 21 17 14 14 11 20 30 54 55 58 61 60 57 55 58 57 60 60 61 61 63 66 67 71 73 72 73 72 74 74 74 71 74 74 74 75 75
29 28 25 22 21 21 19 18 16 16 15 12 16 18 45 56 56 60 57 55 54 56 58 59 59 61 61 63 65 68 71 74 72 74 71 73 70 70 71 73 72 73 76 76
23 19 22 23 21 22 21 19 18 17 17 16 14 15 21 43 48 54 58 56 53 54 57 58 59 61 61 63 64 68 70 73 71 72 74 71 71 70 72 70 75 75 78 77
18 18 20 19 20 22 21 18 19 19 16 16 14 13 21 31 52 50 55 60 53 53 55 58 60 61 62 62 63 67 70 72 73 72 73 73 71 73 71 71 72 73 73 75
8 12 16 23 23 20 21 19 16 18 16 14 13 12 22 25 47 53 50 52 53 55 56 57 59 61 62 63 63 65 70 71 72 72 71 74 71 73 76 74 71 70 70 70
10 10 6 11 21 24 19 21 20 20 15 14 17 16 17 20 21 49 50 53 50 56 57 57 60 61 63 64 65 65 70 71 72 73 70 73 75 70 72 75 70 71 67 70
12 7 8 14 11 21 23 21 20 18 18 16 16 19 19 20 17 22 48 51 56 56 57 58 59 61 63 64 66 66 69 72 72 71 73 71 73 74 70 75 77 71 75 72
19 17 14 12 15 16 17 18 19 20 22 22 18 23 19 26 23 21 26 44 55 60 58 57 58 60 63 64 66 67 69 71 73 71 73 71 71 73 74 72 76 75 76 75
19 17 15 13 16 15 18 21 22 21 22 20 20 20 25 31 27 23 20 30 54 55 59 56 58 60 62 64 65 67 68 71 72 73 72 73 71 71 71 71 71 74 75 79
21 20 17 13 13 14 18 20 19 25 28 27 22 20 26 32 23 21 23 26 38 56 56 60 58 60 61 63 64 66 67 70 72 73 73 72 73 72 71 69 71 75 74 76
25 21 18 17 14 14 9 11 16 15 19 31 22 21 28 30 27 25 25 28 37 49 60 58 60 59 60 62 64 65 66 67 70 73 73 73 72 73 73 70 72 73 74 76
31 23 24 19 18 19 16 9 13 11 17 19 25 24 26 33 38 36 35 34 34 45 48 60 61 66 61 63 65 66 66 66 68 71 72 73 73 73 72 73 71 74 74 74
27 24 22 22 22 20 19 15 13 15 20 21 20 27 30 41 43 45 43 38 43 46 44 47 49 58 66 65 66 67 66 67 68 70 71 72 74 74 74 74 73 70 74 75
34 30 28 24 24 24 20 18 14 15 13 20 23 26 33 41 42 43 44 47 50 53 53 55 57 57 62 63 66 67 68 67 68 70 70 72 74 74 74 74 74 74 73 74
35 37 33 27 22 23 20 22 16 16 17 18 20 26 31 29 36 41 46 45 47 51 53 56 56 57 61 65 67 68 68 69 69 70 71 72 73 74 74 74 74 75 74 74
33 36 36 32 29 25 26 21 19 17 17 15 15 16 19 24 26 34 43 41 44 50 53 55 55 57 56 55 61 69 68 70 71 71 72 72 73 73 74 74 74 74 74 74
22 33 34 30 27 25 23 19 26 26 19 17 19 27 30 26 20 28 33 41 43 47 52 55 55 55 62 63 62 65 69 70 70 72 71 72 72 73 74 74 75 74 74 75
27 28 37 28 25 22 23 31 29 28 23 24 39 41 41 43 37 25 46 51 54 56 57 58 58 58 59 63 62 62 67 71 70 70 72 73 73 74 74 75 75 75 75 74
35 36 33 33 27 23 25 30 30 24 25 40 42 44 46 45 47 48 52 52 53 54 55 58 61 63 66 70 72 68 66 69 72 71 72 73 75 74 75 76 76 75 75 75
35 34 32 34 30 26 33 33 30 37 40 39 39 42 44 46 47 48 50 52 53 54 54 57 62 66 66 67 68 71 68 71 74 74 72 75 75 74 74 76 76 76 76 76
34 37 34 37 35 40 39 38 39 39 39 39 40 40 44 45 46 47 49 51 51 54 55 54 57 62 62 64 67 70 73 74 75 75 74 75 75 75 75 75 76 75 76 75
38 39 36 35 33 38 40 40 39 40 41 41 40 41 43 45 47 47 48 49 51 52 53 55 57 58 59 61 62 65 66 68 75 75 74 75 75 75 75 75 75 75 74 75
37 39 37 36 39 39 38 40 41 41 42 42 43 43 44 47 47 47 47 49 51 52 53 54 55 55 56 58 60 62 63 66 76 75 74 75 74 74 75 74 74 74 75 73
40 36 34 34 38 38 38 41 42 44 46 47 45 44 47 47 47 49 49 50 51 53 53 53 54 55 56 56 58 61 63 64 68 75 74 73 72 73 73 73 72 55 61 57

GFSCGP_sfc_dewp_075.txt.gz
Dewpoint
39 36 33 32 31 29 28 27 21 18 16 18 32 57 60 61 61 63 62 59 60 59 59 59 58 58 59 64 64 65 65 69 71 71 69 68 68 68 70 72 73 73 74 73
36 35 35 33 31 30 26 25 25 23 19 10 22 52 56 54 56 56 57 59 60 58 59 59 58 58 60 62 65 65 67 69 70 70 70 68 69 68 70 71 73 74 71 73
32 30 34 32 31 26 23 24 23 23 21 17 14 49 51 54 55 58 61 61 60 58 58 58 58 58 59 61 64 67 69 69 70 68 69 70 71 68 68 70 72 72 73 73
28 32 30 28 27 26 22 23 23 20 18 16 18 17 50 51 53 57 59 62 62 60 58 58 58 58 58 61 63 68 70 69 69 70 67 68 68 67 68 69 71 71 72 73
24 25 28 27 25 22 21 23 21 20 17 17 16 15 25 52 53 54 57 58 59 60 59 57 58 59 59 62 62 66 70 68 67 69 66 68 67 68 68 69 71 71 73 73
18 18 18 19 20 22 23 22 21 19 19 16 16 18 17 52 51 55 59 57 62 61 59 58 58 59 60 62 62 63 70 68 68 68 70 68 66 68 68 68 70 70 72 73
13 13 15 15 17 22 20 23 19 18 16 16 18 16 16 26 53 57 59 56 55 55 60 59 58 58 60 61 63 63 67 69 67 68 68 71 67 68 70 68 70 69 71 70
10 10 7 9 13 22 24 18 20 17 17 16 18 16 18 20 43 54 57 54 53 57 59 57 58 58 59 61 63 65 65 68 68 66 66 70 69 67 70 71 69 69 69 69
19 15 19 16 15 13 19 22 20 18 19 19 20 20 20 22 21 50 51 52 54 57 59 58 58 58 59 61 62 65 66 66 69 68 66 68 72 65 68 70 71 70 67 69
20 17 18 16 16 15 14 21 19 20 17 18 20 20 23 24 21 34 50 50 54 59 62 63 64 59 60 60 62 63 67 67 69 69 67 66 70 70 69 69 72 71 68 69
20 20 19 20 16 14 14 18 20 19 21 18 17 20 23 27 32 28 33 48 51 56 58 61 62 66 61 61 62 62 68 68 68 68 69 66 66 71 71 69 69 72 70 74
27 22 20 21 21 19 16 13 19 20 20 25 26 26 28 27 39 40 23 49 53 53 54 59 64 67 67 62 62 63 66 68 69 69 69 69 66 68 70 70 68 70 70 72
28 25 21 19 19 18 21 18 17 17 16 17 24 26 32 39 39 41 43 46 54 57 60 61 63 63 63 66 62 63 64 68 69 69 68 70 69 66 68 67 69 66 72 71
30 24 23 21 22 22 21 23 22 13 8 13 17 21 34 36 36 38 43 46 49 59 60 61 63 66 67 64 63 63 64 67 69 69 70 69 69 70 66 66 66 70 72 74
31 26 25 24 22 20 19 23 23 20 16 16 17 21 35 35 35 38 44 44 44 56 59 59 60 57 61 66 64 64 65 65 69 70 70 70 70 70 71 69 68 65 71 71
33 31 31 28 28 25 19 22 23 23 20 15 16 16 32 33 30 32 39 47 43 44 55 57 59 55 62 65 65 61 62 65 66 70 71 71 71 70 70 71 71 67 68 70
34 33 30 27 28 27 24 21 22 22 23 18 16 21 24 28 28 29 27 46 43 43 43 56 60 60 64 62 61 60 61 65 66 67 70 71 71 72 71 71 71 71 67 69
27 34 34 29 31 25 25 27 25 24 23 25 18 25 36 42 43 39 36 28 35 53 55 56 56 58 60 63 67 68 69 69 65 67 68 70 71 71 72 71 71 71 70 67
25 31 29 28 26 26 25 26 28 26 28 38 40 42 43 44 44 43 47 49 43 50 51 54 56 58 61 64 65 67 68 68 68 68 68 70 71 71 72 71 71 71 71 71
34 36 35 33 26 21 28 31 30 28 25 38 37 42 44 46 44 46 47 52 40 37 39 55 58 62 65 64 67 69 69 68 68 69 69 70 70 71 72 71 71 71 71 71
34 34 32 33 30 28 36 34 30 24 32 39 39 38 39 43 45 46 48 49 52 54 55 55 56 61 61 62 63 66 68 69 68 70 69 71 70 71 71 72 71 72 71 71
33 32 33 33 28 25 39 37 35 37 37 37 38 39 39 41 43 46 47 47 52 53 55 55 56 58 60 60 60 61 62 64 66 71 70 70 71 71 71 72 72 72 72 71
32 36 33 33 35 37 37 37 38 39 39 39 39 40 40 39 43 46 47 47 49 52 53 55 56 56 57 57 58 59 61 61 63 65 70 72 72 71 71 72 73 72 72 72
37 39 35 35 34 37 38 38 38 38 38 39 40 41 41 40 43 46 47 47 49 51 52 54 55 55 55 56 57 58 59 61 62 65 73 70 71 73 71 73 73 73 73 72
37 38 36 36 37 37 39 39 39 40 40 40 40 40 44 41 43 46 48 48 51 53 53 53 53 54 54 56 56 57 58 59 61 62 73 71 72 71 72 73 73 73 73 72
39 37 34 32 39 38 39 41 41 40 40 40 41 44 45 43 46 48 49 52 53 52 53 53 52 51 53 53 54 56 56 58 60 62 70 71 73 73 72 72 71 56 61 59

GFSCGP_sfc_dewp_078.txt.gz
Dewpoint
36 36 35 37 35 32 30 29 27 28 28 18 37 57 58 58 60 61 61 60 60 59 58 57 57 61 63 64 63 64 68 67 69 67 67 68 68 68 71 71 72 72 72 72
38 36 37 35 34 31 30 28 27 26 28 22 53 58 59 58 55 58 56 58 59 59 60 59 57 59 63 63 64 64 67 68 68 68 67 68 68 68 70 71 72 73 72 71
36 35 38 36 33 31 30 27 26 24 25 23 53 55 59 59 58 57 59 59 60 59 59 59 57 56 63 62 64 64 67 68 69 68 69 69 68 69 69 70 71 73 72 72
35 36 33 33 32 31 28 28 25 24 21 17 19 27 54 57 58 60 59 59 60 60 59 59 57 56 62 62 64 65 67 68 69 68 68 68 68 65 67 69 71 72 73 72
16 26 31 31 29 28 27 27 23 24 20 17 19 16 28 53 52 54 58 62 61 61 59 58 58 57 59 62 63 67 66 68 69 67 67 67 67 66 68 68 70 70 72 72
15 19 18 22 23 22 25 23 22 21 19 16 17 16 30 50 51 53 57 60 60 59 59 59 59 57 59 61 63 66 66 67 69 67 66 66 66 67 68 68 70 69 71 72
12 12 12 14 11 18 21 19 18 18 16 16 22 18 19 49 50 53 55 57 57 58 58 58 59 58 59 60 62 67 66 66 66 68 66 66 66 66 67 68 69 68 70 71
11 9 15 18 16 15 16 18 19 16 17 16 18 16 19 31 43 52 54 56 53 52 57 57 59 59 59 61 61 65 67 66 66 67 68 67 66 66 68 69 68 69 69 70
17 17 20 19 19 17 12 17 21 19 23 19 20 21 25 26 25 51 54 52 50 52 59 58 58 59 59 61 61 62 67 66 66 65 65 68 69 66 66 70 70 69 68 69
20 16 19 20 17 19 17 17 14 19 18 18 20 21 22 27 38 43 56 56 52 53 58 60 60 60 61 61 61 61 63 66 66 65 64 65 68 70 66 68 70 69 69 68
25 18 18 20 18 21 19 16 14 17 20 18 18 20 25 32 39 40 42 45 56 52 58 61 61 61 61 62 62 62 62 64 67 67 65 64 65 70 68 68 68 71 68 69
29 22 19 19 22 22 19 17 20 18 16 23 22 23 38 38 37 39 41 44 47 55 57 61 62 61 61 61 61 63 64 63 66 67 67 65 64 66 70 69 67 70 70 72
27 24 20 18 18 24 21 21 25 23 19 16 17 19 35 36 37 41 43 49 53 54 60 64 63 64 66 65 63 62 64 65 66 67 67 67 64 65 67 70 70 67 71 70
31 24 23 20 22 23 22 23 20 23 19 20 16 17 28 33 35 40 45 43 57 60 62 62 62 63 63 64 64 64 64 66 68 68 67 68 67 64 64 67 68 69 67 70
30 26 30 30 28 27 26 25 24 20 23 21 19 17 27 28 32 36 46 45 49 53 59 62 63 64 63 62 65 64 64 65 67 67 68 68 69 68 64 64 67 67 68 68
33 29 31 28 27 28 26 25 25 23 22 22 22 20 28 38 40 43 41 46 51 55 57 62 62 63 63 62 66 64 63 64 67 68 68 69 68 69 68 65 64 66 67 70
29 30 27 22 29 27 23 22 25 25 25 26 26 23 40 43 43 46 48 47 53 53 55 57 61 63 63 64 64 65 65 65 67 68 68 69 69 69 69 70 66 66 65 64
25 30 29 24 27 19 21 28 27 25 36 39 41 42 43 44 46 47 47 47 51 54 53 56 62 65 67 66 65 68 69 69 69 69 69 69 70 69 70 69 70 69 68 65
30 30 27 24 24 24 25 26 30 27 36 38 37 37 39 43 46 46 46 47 51 51 50 58 65 64 64 65 68 68 68 69 68 68 70 71 71 71 71 70 70 70 70 68
34 34 30 28 25 21 32 36 37 32 31 37 37 38 38 41 40 44 44 47 50 55 55 57 61 62 62 62 65 66 66 67 66 67 68 70 72 72 71 71 71 70 70 70
29 31 26 32 31 30 36 35 37 26 30 38 37 38 38 38 41 43 44 47 48 53 54 55 58 59 59 59 61 62 63 62 63 64 67 68 69 71 71 71 71 71 71 70
32 29 30 32 32 27 37 34 34 37 37 37 38 38 39 40 40 41 43 46 47 51 53 55 55 56 56 56 56 57 60 61 61 63 64 66 70 70 71 71 71 71 71 70
32 31 29 30 31 37 38 37 38 37 36 36 37 37 38 40 40 41 42 46 47 50 52 54 55 55 55 55 56 56 57 58 60 61 63 66 72 71 70 71 71 71 71 70
34 38 35 33 33 34 37 37 37 37 37 37 37 37 39 39 39 41 41 44 47 51 53 53 53 52 53 53 53 54 56 56 57 59 61 63 71 71 70 71 71 71 70 71
35 35 34 33 35 36 38 38 39 39 38 37 38 38 40 41 42 43 42 44 50 52 52 53 51 51 51 51 52 53 54 55 55 58 60 61 71 70 71 70 71 71 71 70
38 34 32 28 34 35 36 39 41 41 41 41 40 40 42 44 46 46 43 47 50 50 50 51 50 50 50 50 52 53 53 54 54 57 60 58 62 71 72 70 72 56 60 59

GFSCGP_sfc_dewp_081.txt.gz
Dewpoint
35 31 33 36 36 35 32 29 29 29 29 28 47 56 57 61 61 61 60 59 59 57 57 59 59 63 64 65 66 67 66 67 68 67 68 68 66 68 71 70 71 72 70 71
37 35 37 37 37 34 32 30 29 28 28 24 52 56 57 58 60 60 59 59 59 57 57 57 58 63 63 65 65 67 66 66 68 66 67 68 68 68 70 71 72 72 72 72
36 37 38 37 36 33 32 29 29 28 27 49 54 54 56 59 59 57 59 59 60 59 58 56 57 63 63 64 65 66 66 66 68 67 67 68 67 69 69 70 71 72 72 71
37 38 35 34 35 33 31 31 30 27 21 18 30 18 53 56 57 59 57 60 59 60 59 56 56 62 63 63 64 65 67 66 67 67 66 67 67 65 68 70 71 72 72 72
26 22 34 32 31 32 30 31 28 24 20 18 19 20 31 57 56 56 57 59 60 60 59 58 56 60 63 63 63 64 66 67 67 67 66 66 67 65 67 68 69 71 71 72
16 19 20 24 30 30 30 27 22 21 19 17 17 16 19 52 55 56 56 57 60 60 60 59 58 57 62 62 63 64 66 66 67 67 67 66 66 67 67 67 68 69 70 72
12 12 14 17 13 18 20 19 17 18 17 17 20 17 19 42 53 56 55 56 58 61 59 60 58 57 59 62 63 64 65 66 67 67 66 66 66 66 66 67 68 69 70 71
12 8 17 19 17 16 15 18 18 15 16 16 19 16 18 26 42 53 54 55 56 60 60 59 59 57 57 61 62 64 65 66 67 67 66 66 66 66 67 68 68 69 69 70
16 16 20 20 20 16 14 14 21 19 24 17 19 20 28 39 41 49 52 53 55 58 60 60 59 58 57 59 62 64 65 65 66 67 66 65 65 66 66 68 69 69 68 69
23 15 19 21 20 21 17 17 16 17 18 17 19 20 20 36 39 40 42 52 55 55 56 58 59 59 58 59 60 63 65 65 65 66 67 66 66 66 66 67 70 70 69 68
26 20 17 19 20 19 19 20 20 16 19 18 18 20 29 36 38 39 42 46 49 47 53 56 57 59 59 59 60 61 64 64 65 65 66 66 66 68 66 66 67 70 69 69
28 21 20 19 22 22 22 22 22 19 18 20 20 21 35 36 37 42 46 53 58 56 50 54 58 58 59 60 60 60 61 65 65 65 65 64 65 67 68 66 67 68 69 69
28 23 18 16 19 25 22 25 25 22 20 19 17 18 23 28 36 43 48 50 54 60 58 59 61 61 60 62 61 60 60 63 65 65 65 64 63 64 66 68 68 67 68 69
31 25 21 18 22 25 25 26 23 22 18 21 21 22 23 24 32 38 43 53 56 58 61 63 63 63 63 64 64 63 62 63 64 67 66 65 64 64 64 65 69 68 68 68
28 26 28 29 28 27 26 25 25 22 23 21 21 22 23 28 38 46 48 48 53 60 60 61 62 63 64 64 63 64 65 65 65 66 68 66 66 64 64 64 66 69 68 68
30 28 28 26 28 26 23 23 22 24 23 22 23 23 42 43 46 46 47 48 52 52 53 58 64 65 65 65 65 64 64 65 67 67 68 69 68 67 64 64 64 66 68 68
28 28 25 21 28 24 13 25 25 26 30 27 25 35 42 42 42 45 46 47 52 53 51 60 64 63 63 66 66 65 65 65 66 67 67 68 69 68 67 65 63 64 65 66
28 27 27 23 24 16 16 30 29 34 37 37 37 37 38 39 40 45 41 45 49 54 56 62 62 62 61 64 67 67 66 66 68 69 68 69 69 68 69 69 66 63 64 64
27 29 25 23 22 22 25 35 35 34 35 37 37 37 37 38 42 45 40 42 47 52 55 58 61 61 60 60 63 65 66 67 68 68 69 70 70 69 69 69 68 69 65 65
34 32 28 26 22 21 29 34 34 36 30 38 37 37 37 38 36 41 41 42 42 47 54 57 59 59 57 58 60 61 62 63 62 63 65 67 70 71 70 70 70 70 70 68
25 27 25 26 23 29 36 34 35 30 28 37 36 37 37 36 38 40 40 39 42 44 52 56 57 57 57 56 57 56 59 58 60 62 63 64 65 68 72 71 71 71 71 71
30 24 26 26 27 25 36 33 30 34 35 36 36 36 36 37 38 39 40 40 40 42 47 55 56 56 54 54 54 54 55 57 58 60 60 62 64 67 70 72 72 72 71 70
30 29 24 27 26 35 37 35 37 36 36 35 36 35 36 36 37 38 38 40 40 41 43 54 54 55 55 53 52 52 53 55 56 58 59 60 63 64 68 70 72 71 71 71
31 37 33 32 28 32 35 38 37 36 37 38 38 38 37 36 37 38 39 40 41 41 43 53 53 52 54 53 51 52 53 54 54 55 57 59 60 60 67 72 72 72 71 71
31 36 32 32 32 34 35 37 38 39 39 39 40 40 39 38 38 41 41 42 43 43 45 52 51 50 50 52 52 52 52 52 52 52 55 58 60 60 63 72 72 71 73 71
35 33 32 29 32 33 33 37 40 40 40 41 41 41 41 41 40 42 45 46 46 44 48 50 49 49 49 50 50 52 50 50 50 51 53 55 57 60 64 70 72 56 57 56

GFSCGP_sfc_dewp_084.txt.gz
Dewpoint
35 31 30 33 36 35 32 30 29 30 30 29 34 51 56 62 62 61 61 59 60 59 61 62 62 63 64 65 66 67 67 68 69 68 68 68 67 69 71 72 72 72 72 72
35 31 33 35 37 34 32 32 30 30 29 26 38 46 58 60 61 61 61 60 59 59 59 60 61 62 63 64 66 67 67 68 69 68 68 69 68 69 72 72 73 73 72 72
35 36 37 37 35 33 33 32 29 29 28 50 51 42 55 58 59 59 62 60 60 59 57 59 59 61 63 64 66 67 67 68 69 68 68 68 69 70 70 71 72 73 73 72
36 37 37 36 35 34 34 32 31 30 24 18 31 16 45 55 57 58 58 59 59 61 57 58 58 61 63 64 66 67 67 67 69 68 68 68 67 67 69 71 71 73 73 72
34 28 35 32 32 33 32 32 31 28 22 20 21 16 22 54 55 57 58 59 60 60 60 57 57 62 63 64 65 66 68 67 69 68 68 68 67 68 69 70 71 72 73 73
18 18 26 32 33 33 31 23 21 21 20 18 19 16 19 52 54 55 57 59 59 60 61 60 57 61 63 64 65 65 67 67 68 68 67 67 68 67 68 69 70 70 72 72
13 16 17 18 12 18 21 20 18 18 17 17 20 17 20 28 36 55 56 57 58 59 59 61 58 58 62 63 64 65 66 67 68 68 68 67 68 68 68 68 69 70 70 71
10 12 18 20 17 14 16 18 18 15 16 16 20 17 31 38 42 48 56 57 57 58 59 60 61 57 61 63 64 65 65 66 67 68 68 68 67 67 68 68 69 70 70 71
16 16 20 21 21 16 15 16 20 19 20 17 19 23 27 39 41 43 45 54 55 57 60 60 61 60 58 62 63 64 65 66 67 67 68 67 67 67 67 69 70 70 71 71
22 15 18 21 21 21 16 19 16 19 17 16 19 23 27 36 37 40 45 47 49 52 60 61 61 60 59 59 62 64 65 65 66 67 67 66 66 67 67 68 69 70 71 71
26 18 17 21 21 20 20 20 20 18 20 18 18 28 26 30 36 40 43 51 55 58 55 57 61 61 60 59 61 62 64 65 65 67 67 67 67 66 67 67 69 70 71 71
27 21 19 20 22 25 23 22 22 17 17 20 21 27 25 25 31 40 43 47 56 60 61 55 57 61 60 59 60 62 63 64 64 66 67 67 67 67 66 66 67 69 71 71
26 22 16 19 19 24 25 25 23 22 19 20 18 22 26 32 38 46 47 48 58 60 62 62 60 59 60 60 60 61 63 64 65 66 65 67 67 67 68 66 67 68 69 70
32 26 18 15 19 26 25 26 23 21 19 21 21 23 24 42 45 46 47 48 52 52 60 62 63 63 63 65 63 62 61 67 68 67 67 66 66 67 67 68 68 67 68 69
28 28 28 28 28 27 26 25 25 22 22 19 21 24 27 43 45 46 46 48 52 53 57 63 64 64 65 65 64 65 65 65 67 67 67 67 67 66 67 67 68 69 68 68
29 30 28 25 28 26 23 23 24 25 24 23 23 26 42 44 43 42 41 43 49 54 56 62 62 62 64 66 66 64 66 66 66 68 67 68 68 67 66 66 67 69 69 68
28 27 24 19 27 23 23 26 26 27 37 34 23 35 38 38 38 42 40 41 44 47 54 59 60 60 59 62 67 66 66 67 68 66 67 69 69 68 67 66 67 67 68 69
28 26 25 23 21 11 16 35 35 33 37 37 37 37 38 38 38 38 41 40 40 42 46 55 59 59 59 59 62 65 68 67 68 68 68 69 69 69 69 68 66 66 67 68
28 28 25 22 20 20 31 32 33 34 34 37 36 37 37 37 37 43 41 40 39 40 42 47 57 59 59 59 60 61 62 62 62 63 65 68 70 69 70 69 69 68 66 66
32 30 27 25 21 19 31 35 35 35 31 36 35 35 36 36 32 42 40 39 40 40 40 42 48 58 58 57 59 59 59 59 59 60 62 63 64 68 70 70 70 70 68 66
24 26 25 26 22 27 35 35 35 29 29 36 36 35 35 35 37 37 38 39 39 41 41 42 44 55 56 57 57 57 57 57 58 59 60 62 63 64 67 71 71 71 71 70
25 22 25 28 26 24 36 33 27 33 36 36 36 35 35 35 36 37 37 38 39 40 41 41 43 46 56 55 53 53 55 56 57 58 59 61 62 63 66 68 72 71 71 70
24 27 24 25 25 34 36 32 36 37 36 37 36 36 36 35 36 36 36 37 38 40 41 42 43 46 55 55 52 50 53 55 56 57 58 60 61 62 63 63 67 71 71 71
29 35 33 29 28 33 35 37 37 37 37 37 38 38 38 38 38 38 37 37 38 41 42 43 43 44 52 55 53 52 53 54 54 54 55 58 60 61 62 64 66 70 72 70
30 35 32 29 31 33 34 37 37 38 39 39 40 41 40 40 39 39 39 40 41 43 44 45 44 45 51 53 52 53 52 52 51 51 52 55 56 59 61 63 65 68 72 71
34 32 29 28 32 32 32 36 39 39 40 41 41 41 40 41 41 41 41 41 43 43 46 47 46 47 51 50 51 52 51 51 49 50 50 52 53 55 60 62 64 59 57 54

GFSCGP_sfc_dewp_087.txt.gz
Dewpoint
28 28 29 39 38 37 34 32 31 34 44 38 35 37 51 59 62 62 62 61 60 60 62 63 64 65 64 65 68 69 69 71 71 70 69 69 69 71 71 72 74 73 74 74
27 26 32 37 38 36 34 33 32 31 29 29 31 44 57 59 60 62 61 60 60 60 61 63 64 64 65 65 67 69 69 71 72 70 71 71 71 70 71 73 74 74 74 74
25 25 33 36 36 36 35 34 31 29 30 50 42 44 55 59 60 61 61 61 60 60 60 62 63 64 64 65 66 68 70 71 72 72 71 72 71 71 71 72 72 74 74 73
31 34 35 37 36 36 36 34 31 30 29 24 33 23 41 56 58 60 61 61 60 61 61 61 61 63 63 65 66 68 70 71 71 73 72 72 69 68 68 71 72 73 74 74
34 36 35 36 37 36 36 34 32 31 29 24 22 20 25 53 53 57 60 62 61 60 60 60 61 62 63 64 65 67 70 71 71 72 73 71 71 69 69 70 74 75 75 74
21 22 33 36 34 36 32 27 25 25 23 22 23 20 24 40 45 44 55 61 61 60 60 60 61 61 62 64 65 66 69 72 72 72 72 73 72 72 70 70 71 71 72 73
16 17 19 19 26 30 30 27 22 21 21 20 22 20 37 41 44 48 46 56 60 61 60 61 60 60 62 64 65 65 70 71 71 71 72 72 72 73 73 72 70 72 70 71
16 14 19 21 19 24 30 27 21 21 19 18 22 24 37 41 45 50 53 56 58 60 61 61 62 61 62 64 65 67 70 71 70 70 72 73 73 69 69 72 69 69 69 70
18 17 20 22 22 20 21 22 21 21 21 18 20 27 34 38 43 48 50 54 55 57 59 61 61 61 61 63 66 68 70 71 71 70 72 73 72 72 70 73 73 70 73 70
21 18 20 20 22 22 20 21 20 23 22 19 22 30 29 36 40 47 50 53 58 59 60 58 60 61 61 62 65 67 69 70 71 70 70 70 71 71 71 72 72 72 72 73
22 20 22 23 24 23 21 20 20 22 23 19 19 27 27 36 41 49 52 53 57 60 61 62 60 61 62 62 63 65 67 68 68 69 71 72 70 70 70 69 71 72 74 74
27 22 22 22 24 26 23 24 23 22 26 24 25 26 34 41 45 49 49 52 55 60 63 63 59 59 62 63 61 63 64 65 67 69 71 70 70 70 69 69 70 71 72 74
27 23 20 21 20 25 25 24 22 20 22 27 21 23 35 44 46 48 50 50 56 59 62 64 65 65 64 63 63 63 64 64 65 67 68 69 69 69 69 70 70 70 72 72
31 26 22 14 22 26 24 23 22 20 20 23 23 25 31 44 46 47 49 51 55 57 59 61 62 63 67 67 66 63 64 65 66 66 66 69 70 71 69 71 71 70 71 72
30 28 28 27 26 24 23 22 21 19 23 22 25 23 37 44 45 45 48 50 52 50 55 59 59 59 61 64 67 65 64 67 67 68 68 68 70 70 71 72 72 70 70 71
32 30 27 26 25 24 19 22 21 21 20 21 22 24 39 42 42 43 45 49 46 45 47 52 57 57 57 59 63 67 66 65 67 68 68 70 70 70 70 71 71 72 71 71
33 31 27 21 26 22 17 23 21 23 31 32 21 35 39 38 40 40 41 43 41 40 41 44 49 56 56 56 59 64 69 68 68 68 69 69 70 70 70 69 70 71 72 71
31 33 32 27 23 15 27 34 35 29 37 37 38 38 38 38 38 38 40 40 40 40 40 41 42 45 56 56 55 61 64 67 68 69 69 69 70 70 70 71 70 71 70 71
30 33 32 27 20 22 28 31 32 33 33 38 37 36 35 36 37 41 42 40 40 41 41 41 40 42 48 57 56 58 60 62 63 65 67 67 69 70 71 70 70 70 70 70
32 33 34 30 23 16 29 33 33 34 28 35 35 35 35 35 32 38 40 38 39 40 40 41 41 41 42 51 57 56 58 59 60 61 62 63 65 66 69 72 72 72 71 70
33 35 32 31 29 28 34 32 35 28 31 35 35 35 35 34 35 37 38 38 39 39 40 41 42 42 44 45 56 56 55 57 58 60 62 63 64 65 66 68 71 72 72 71
32 33 32 32 29 25 36 30 29 35 35 36 36 36 35 36 36 36 37 38 39 40 39 40 41 43 45 47 51 56 55 57 58 58 60 63 63 65 67 68 70 71 71 71
33 33 35 34 32 36 35 32 35 35 34 35 36 35 36 36 37 38 38 39 39 40 40 40 42 44 46 48 50 55 57 56 56 56 57 58 62 63 65 66 68 69 70 71
36 36 38 34 32 35 37 37 36 36 36 35 35 36 38 38 38 38 39 39 39 40 40 41 43 44 47 49 50 55 56 56 54 53 54 56 58 60 62 63 65 67 68 68
36 38 37 35 35 35 37 38 38 38 38 37 38 38 39 40 38 39 40 40 41 41 41 43 44 45 48 50 49 53 56 55 52 51 50 52 53 56 59 60 63 65 68 65
37 37 38 39 38 36 36 39 40 39 39 40 40 39 39 38 40 40 40 42 43 43 43 44 45 46 49 50 50 54 55 53 52 50 49 49 49 51 56 59 61 56 54 54

GFSCGP_sfc_dewp_093.txt.gz
Dewpoint
27 20 19 21 24 28 29 37 40 40 44 44 48 52 57 59 59 61 60 57 58 58 57 55 54 55 57 60 65 66 67 71 69 68 65 65 66 73 75 74 73 72 71 72
25 22 19 17 22 22 29 33 37 39 43 41 46 48 52 57 60 60 61 60 59 57 54 56 56 56 57 60 64 67 69 72 71 67 69 67 72 69 68 72 72 71 71 73
21 21 21 18 23 28 31 32 35 38 35 35 34 41 48 51 54 61 60 60 58 55 53 57 57 58 58 60 63 67 70 72 72 72 72 70 72 74 68 75 70 71 71 71
21 19 19 19 29 31 28 31 33 32 33 33 34 32 46 47 51 55 57 59 57 57 55 57 58 59 59 60 61 66 69 72 72 73 73 75 71 67 71 69 73 71 72 71
21 19 20 24 29 30 25 26 33 31 30 30 31 29 38 47 48 52 55 58 58 58 57 57 58 61 61 60 58 63 69 72 74 75 75 71 72 71 70 73 73 74 76 74
23 22 24 25 27 31 33 29 33 32 29 24 27 27 37 41 47 47 52 56 57 56 59 57 59 61 61 59 60 61 69 73 73 73 74 74 72 72 73 71 69 68 71 71
28 28 22 27 29 33 34 30 25 23 23 22 23 21 41 44 45 44 43 53 56 57 58 59 59 61 61 61 61 63 70 73 73 72 73 74 74 72 71 72 69 70 68 73
23 23 25 30 32 32 32 29 23 23 18 18 21 29 40 46 48 49 50 51 54 55 59 59 60 62 62 63 64 63 72 73 72 72 75 76 76 70 69 70 69 67 66 71
22 22 23 26 32 31 31 29 22 18 17 14 26 40 42 46 48 51 52 55 54 53 57 60 61 61 62 64 66 65 70 75 73 72 75 76 76 75 71 73 73 69 75 72
24 23 21 20 24 26 27 30 25 22 24 19 24 35 35 45 48 50 53 59 61 61 60 61 64 63 62 63 63 65 68 72 72 72 72 72 73 75 74 73 73 72 72 73
22 22 21 21 23 21 25 26 27 22 20 19 21 32 41 46 48 51 57 59 61 61 62 64 62 63 65 64 64 63 66 69 70 71 73 74 73 72 74 72 72 73 73 74
25 21 21 19 23 24 23 25 27 25 26 21 23 31 42 47 47 54 57 57 58 59 60 61 63 65 65 68 68 64 64 65 67 70 73 72 73 73 72 73 72 73 74 75
28 23 22 22 20 22 22 23 23 23 21 28 21 34 45 48 49 52 53 56 56 57 58 59 60 61 63 66 68 68 67 63 64 68 69 70 71 72 72 73 74 73 75 75
38 22 24 21 23 20 22 22 23 21 22 23 24 39 44 47 49 51 52 53 53 55 57 57 58 60 60 62 65 67 67 69 70 68 67 71 72 73 72 73 75 74 75 75
28 25 24 24 20 21 20 21 19 22 23 24 36 39 43 45 47 50 51 51 51 52 52 53 54 57 59 60 61 62 64 67 70 70 70 71 72 73 74 75 75 74 75 75
29 29 31 23 21 19 18 18 18 19 21 24 37 40 44 44 43 45 46 47 48 50 50 50 51 52 54 58 59 58 60 63 69 70 70 72 73 75 74 74 74 75 75 76
31 28 30 24 22 20 18 19 19 19 19 24 31 39 41 41 40 42 44 45 46 47 48 49 49 49 50 50 56 58 58 62 65 67 66 68 73 73 74 75 75 76 76 75
30 32 29 22 25 19 24 27 19 18 25 30 37 37 39 39 37 43 44 44 44 46 46 46 45 47 48 47 47 54 58 60 61 62 63 65 67 70 73 74 74 75 75 75
28 30 26 22 20 21 25 28 25 23 31 32 35 35 34 34 36 42 42 41 42 43 44 45 44 44 47 49 49 51 53 57 58 60 60 62 65 67 68 71 73 73 74 74
27 32 29 24 21 17 27 26 29 26 28 34 34 35 33 32 25 42 41 39 39 40 42 43 43 44 45 48 48 51 51 52 56 57 60 61 60 64 67 69 70 73 76 73
30 30 29 28 26 27 33 30 28 24 32 36 33 34 33 32 37 39 38 40 41 41 42 43 43 43 46 48 50 51 52 52 54 55 56 60 62 63 62 67 70 71 73 75
32 34 30 30 28 28 34 30 27 40 39 35 34 34 35 36 35 36 38 39 41 42 42 42 43 44 45 47 49 51 52 55 57 57 57 57 59 58 56 63 66 69 70 71
36 32 40 33 36 41 35 35 39 37 37 35 35 33 34 32 33 35 37 39 40 42 43 43 44 46 46 47 50 51 54 55 55 56 59 58 58 58 58 59 61 60 68 66
34 36 40 35 36 36 35 36 34 32 35 34 33 33 33 34 34 35 36 39 40 41 42 44 46 46 47 48 49 51 52 54 55 55 57 58 56 55 56 53 52 52 55 58
36 37 37 36 35 35 36 33 34 34 35 34 34 34 34 35 35 35 37 39 40 42 43 44 44 45 46 48 49 50 52 53 53 53 53 54 54 53 51 53 50 51 56 52
33 35 39 39 36 37 35 37 38 38 36 35 35 35 36 36 36 38 39 40 41 42 42 43 44 44 45 46 48 50 52 54 54 52 51 50 50 50 50 47 47 47 47 47

GFSCGP_sfc_dewp_096.txt.gz
Dewpoint
30 22 20 21 26 31 32 33 42 46 50 53 50 50 59 58 57 56 55 53 53 53 55 55 56 58 58 65 67 70 73 74 73 72 71 74 72 75 75 73 74 76 76 75
25 21 19 17 20 22 29 28 41 46 47 53 51 54 58 58 57 57 55 56 57 58 57 56 57 57 58 65 68 71 73 74 75 72 75 75 72 72 74 72 74 75 75 76
23 20 20 16 16 19 22 25 43 46 51 47 51 55 52 57 56 59 59 58 58 59 58 54 55 56 58 65 67 70 74 74 75 75 76 72 73 72 73 75 75 75 75 74
19 20 19 18 15 19 20 26 30 44 41 33 40 41 54 56 57 57 61 59 59 59 58 54 54 55 57 63 66 71 73 74 74 76 76 75 72 69 71 74 75 75 74 75
18 18 18 19 17 22 25 27 38 39 38 30 31 39 44 50 56 52 59 60 58 56 53 54 55 57 58 61 63 69 72 74 75 76 77 74 74 74 72 74 72 76 78 76
19 19 18 18 19 29 28 26 25 34 32 27 31 29 42 50 55 55 58 59 59 59 56 57 58 59 59 60 61 68 72 74 76 75 76 76 72 70 72 74 73 75 75 75
25 21 17 21 22 26 27 28 23 30 26 23 27 30 48 54 56 54 58 57 58 59 61 58 60 59 61 60 60 67 71 73 75 75 74 76 75 75 70 72 72 74 72 73
23 23 25 21 23 26 27 27 23 27 22 21 25 37 41 45 45 43 51 53 61 60 62 58 60 62 67 62 61 66 71 73 73 74 75 76 77 75 72 73 73 72 72 72
25 22 25 21 26 28 28 28 25 19 19 18 35 42 44 46 46 49 58 61 63 61 62 63 60 62 65 66 66 67 71 73 74 73 75 76 76 76 74 76 76 73 75 72
30 26 23 24 27 31 32 28 25 27 26 23 35 40 41 45 53 57 59 60 64 64 66 67 66 65 67 66 62 69 71 73 73 73 74 74 76 76 76 78 76 75 76 72
25 26 24 22 25 28 28 28 28 25 24 23 33 37 44 48 56 57 58 59 60 61 63 65 65 65 65 70 69 67 71 73 74 74 75 74 75 75 76 75 76 76 76 76
27 23 23 20 20 21 21 28 27 27 31 28 41 42 51 52 55 56 57 58 58 59 60 62 63 66 68 70 70 71 70 71 72 73 75 75 75 75 75 75 75 76 76 76
33 24 24 21 20 21 22 23 21 23 25 36 31 40 55 58 55 56 56 57 57 57 58 59 60 62 65 66 67 67 69 71 71 72 73 74 74 74 75 75 76 76 76 76
38 26 29 26 28 23 21 21 22 22 24 24 35 39 46 51 51 52 53 54 54 55 56 57 58 61 61 62 63 66 67 70 71 72 72 73 74 74 74 75 76 76 76 76
24 26 26 27 24 21 18 18 19 22 25 38 41 44 47 49 50 51 51 52 52 52 52 53 53 55 59 62 62 62 66 67 70 70 70 72 71 75 75 76 76 76 76 76
26 27 29 25 21 20 20 17 18 19 21 36 40 47 50 49 49 49 50 50 50 50 50 50 51 52 53 55 60 61 62 64 66 67 67 69 71 73 74 76 76 77 77 76
30 26 30 24 22 21 18 20 19 19 21 40 42 47 45 45 46 46 47 47 47 47 49 49 50 51 53 51 55 58 62 62 62 62 64 65 69 70 71 74 75 76 76 77
32 35 31 26 25 23 22 27 22 19 21 36 41 43 41 42 43 44 45 45 45 46 46 46 45 47 49 49 50 57 57 62 62 62 62 62 64 67 69 70 72 74 75 75
25 31 28 26 22 24 26 27 22 18 26 36 39 40 39 38 42 42 41 42 42 42 43 44 44 45 48 49 52 56 57 58 60 60 62 62 63 63 66 68 69 71 73 74
26 30 30 25 24 21 27 26 26 24 28 33 37 37 35 34 37 41 42 40 40 41 42 42 43 42 45 48 48 53 55 58 58 58 60 62 62 62 62 65 67 70 72 73
27 29 27 27 27 30 31 28 27 23 35 35 35 36 35 34 41 42 41 41 42 42 42 43 44 44 48 49 51 53 54 54 56 58 60 61 62 63 65 66 66 68 69 70
30 31 28 28 27 27 33 29 26 40 40 36 37 35 35 39 39 39 39 40 41 42 42 43 44 46 47 50 53 54 55 57 58 59 58 61 62 59 57 63 64 65 67 68
37 36 37 37 41 40 36 40 41 39 38 37 37 35 36 33 34 36 37 40 40 42 43 43 46 48 49 51 52 50 54 55 56 57 59 59 62 62 61 62 61 61 63 66
33 34 39 38 40 39 37 38 37 38 37 35 35 34 32 33 34 35 37 39 40 41 42 44 45 45 47 49 50 52 54 55 56 56 57 58 58 60 61 57 55 53 54 56
37 35 34 36 36 36 37 35 33 33 36 33 33 33 34 34 35 35 37 40 40 42 43 44 44 44 45 47 48 48 51 52 51 54 55 56 54 56 58 59 55 55 59 53
33 33 39 36 36 38 37 37 35 35 34 34 35 35 35 36 37 38 38 41 41 42 43 43 44 44 44 45 46 49 49 51 49 49 51 52 52 53 53 53 54 51 47 46

GFSCGP_sfc_dewp_102.txt.gz
Dewpoint
34 25 24 25 25 24 25 26 50 56 59 58 55 56 58 60 61 62 53 52 53 56 57 59 63 65 65 66 66 66 68 67 68 69 70 69 68 68 69 70 71 72 72 72
27 25 26 26 25 24 23 28 52 55 56 56 56 57 60 60 60 57 53 51 52 55 57 58 62 63 63 64 67 67 68 67 67 69 70 70 70 70 70 71 71 72 72 71
27 27 28 28 25 21 19 23 50 51 54 56 54 52 57 59 59 55 53 52 52 54 57 58 61 62 63 66 67 68 69 67 67 70 70 69 68 70 69 69 70 72 72 72
26 28 27 27 25 21 16 19 43 51 51 49 53 43 51 54 59 57 53 53 52 53 56 58 60 61 62 66 67 69 69 68 70 70 68 67 65 64 69 68 70 72 72 71
23 23 23 23 22 20 18 21 37 49 48 50 51 47 48 54 56 56 58 55 55 52 55 57 59 61 62 66 68 68 68 68 70 71 69 66 66 68 70 71 70 71 72 71
23 24 20 19 19 20 20 40 43 46 46 41 45 47 49 53 55 58 58 58 58 57 54 56 58 62 63 65 68 68 68 67 68 71 71 69 68 68 70 69 69 69 71 72
26 24 21 19 17 21 23 26 25 37 41 37 45 45 43 54 57 58 60 61 62 64 63 56 56 62 63 63 67 70 68 68 69 70 71 70 68 69 69 69 68 68 70 70
24 21 23 22 19 19 23 26 26 26 29 32 43 43 47 52 53 55 57 60 62 63 66 64 62 61 63 63 66 69 69 68 70 71 70 71 69 68 69 69 69 69 69 70
24 24 28 23 21 20 21 23 25 24 30 33 43 47 48 55 55 55 55 60 62 62 65 65 66 66 68 68 67 66 70 69 70 71 71 71 71 69 68 69 69 68 70 71
27 25 27 28 23 25 23 29 27 27 25 29 42 44 47 52 59 60 57 61 62 62 65 66 66 67 68 68 68 69 69 69 69 71 71 72 72 70 69 68 68 70 71 71
30 28 25 26 25 25 30 31 30 29 28 30 39 43 57 58 60 61 62 62 62 62 62 64 65 68 68 68 68 69 68 71 70 69 71 71 72 73 72 72 71 70 70 71
35 28 24 24 27 26 30 29 31 29 26 42 41 48 59 58 59 60 61 61 63 64 64 66 65 65 68 66 67 67 68 69 70 70 71 70 71 73 72 72 72 72 70 69
29 27 26 25 23 25 21 22 22 27 36 33 35 45 58 59 58 59 60 61 62 62 62 63 64 65 66 67 66 67 68 68 70 70 69 68 69 71 71 72 72 73 71 69
41 26 27 26 23 28 21 21 22 21 26 39 44 49 55 56 57 59 58 57 57 60 60 60 60 62 64 65 68 67 68 70 69 70 69 68 68 70 69 71 71 72 72 70
29 27 27 26 27 23 22 23 23 23 33 31 48 49 54 56 55 54 53 50 50 51 52 54 55 58 61 63 64 66 66 66 69 68 68 69 69 70 68 69 70 72 72 73
31 28 30 26 26 25 23 24 35 40 47 48 50 51 54 51 50 49 48 48 48 49 50 50 50 51 53 59 62 62 63 63 66 66 67 70 70 69 68 68 69 70 71 72
32 31 30 28 29 24 21 25 29 44 46 49 47 50 51 50 49 49 48 48 48 47 46 48 50 50 51 53 57 59 60 60 59 60 63 66 68 69 70 69 70 70 69 70
24 30 31 28 26 21 24 28 35 46 48 50 50 50 50 48 48 50 47 44 44 44 43 44 47 49 51 52 54 57 57 58 59 59 60 62 62 63 66 66 67 68 70 70
26 29 27 25 25 26 29 28 32 42 44 50 47 44 43 43 43 43 47 43 43 43 42 43 48 47 48 50 53 55 54 54 55 55 55 59 59 60 62 63 63 66 68 68
26 30 28 29 26 23 30 29 30 37 42 48 44 41 40 40 39 41 43 42 42 43 45 46 49 50 51 52 51 50 50 51 52 53 54 56 57 58 58 59 61 62 62 66
30 28 27 28 27 31 33 32 33 30 32 46 46 43 41 41 41 43 45 42 42 44 46 48 48 48 48 49 49 49 50 51 52 53 54 54 56 55 57 57 58 57 57 60
34 31 31 30 27 27 39 37 31 38 39 41 42 40 41 40 41 41 41 42 43 45 46 47 47 47 48 49 48 48 49 50 51 51 52 53 54 55 56 57 57 55 55 53
32 35 36 37 36 39 40 38 39 37 37 40 40 40 40 39 39 39 41 41 42 43 43 44 44 45 46 47 48 47 48 49 48 49 49 50 52 51 51 53 54 55 54 51
35 37 37 38 39 39 39 38 38 36 35 38 37 38 39 38 39 39 41 41 42 43 43 44 44 44 44 45 46 46 46 47 46 46 47 47 48 48 48 49 49 49 49 49
36 36 34 35 39 39 39 37 38 38 37 35 33 35 36 38 40 39 39 42 42 42 42 43 42 43 42 43 44 45 46 45 43 43 44 45 44 46 47 47 48 48 48 47
39 37 35 35 39 39 38 37 40 38 37 35 35 36 38 39 39 41 41 41 42 42 42 42 42 42 42 43 43 44 44 44 42 42 42 42 43 44 44 44 45 46 46 45

GFSCGP_sfc_dewp_108.txt.gz
Dewpoint
29 32 33 26 26 26 24 51 53 57 58 56 55 55 57 61 61 60 58 55 58 59 61 63 65 67 67 68 68 69 68 68 70 70 69 68 66 68 69 70 72 72 72 73
29 31 33 30 26 25 38 52 53 57 58 53 55 55 58 60 60 61 61 53 56 59 61 63 65 67 67 67 67 68 67 68 70 70 70 70 69 69 69 70 72 72 72 72
32 31 29 26 25 23 22 47 53 53 56 55 53 53 56 59 59 61 62 54 57 60 61 62 64 66 66 66 66 68 68 68 69 70 70 70 70 70 69 70 71 72 72 72
30 31 27 27 26 24 20 26 53 54 49 47 52 45 54 57 58 59 60 55 57 59 61 62 64 65 65 66 67 68 68 67 68 70 70 69 69 68 69 69 71 72 72 72
29 27 27 26 26 24 22 25 51 50 49 48 52 45 46 56 56 58 60 56 56 58 60 62 63 65 65 65 66 67 68 67 68 70 70 69 69 69 70 70 70 71 73 72
27 27 25 26 27 25 37 47 47 47 47 42 47 45 47 54 55 57 58 59 56 57 59 61 63 64 64 65 66 67 68 67 69 69 69 69 68 68 69 70 69 71 73 73
25 25 25 22 19 22 29 41 40 39 40 38 43 46 43 52 56 56 57 57 55 58 58 60 62 63 63 65 66 67 67 67 69 69 68 68 68 68 69 70 69 70 71 72
22 21 25 23 23 21 29 35 37 33 37 38 46 43 42 55 54 56 57 59 56 58 59 61 63 62 64 66 67 67 67 67 69 70 70 70 69 69 69 70 70 70 71 71
23 24 27 21 21 21 24 30 31 32 29 38 42 45 50 56 57 57 60 60 58 58 60 62 64 66 66 67 67 67 67 67 68 69 70 70 69 69 69 70 71 70 70 71
25 21 26 28 27 32 25 26 25 25 24 28 41 43 45 54 56 60 60 62 63 62 62 63 64 67 68 68 69 70 69 68 68 69 70 70 70 70 69 70 70 70 70 71
29 28 25 26 23 28 30 30 29 29 31 36 37 42 55 55 56 59 61 63 63 63 63 63 64 65 68 68 68 68 68 69 69 70 71 71 71 70 70 70 70 70 70 71
33 25 24 29 27 28 30 31 29 28 34 39 39 43 59 59 60 59 60 62 63 64 65 66 66 66 67 67 67 67 68 69 69 69 70 71 71 71 71 71 71 71 71 71
28 26 23 23 20 24 21 23 31 32 39 39 36 43 59 60 60 61 60 61 62 62 64 65 66 67 67 67 67 67 67 68 69 68 68 69 69 69 70 71 71 72 72 72
36 27 25 22 22 27 24 27 24 25 25 35 39 49 56 57 58 60 61 61 62 63 62 63 64 65 65 65 65 66 67 68 69 69 67 68 69 69 68 69 69 70 72 72
29 26 28 27 26 24 25 30 35 23 29 31 41 49 53 56 57 58 60 60 60 60 60 61 62 64 65 65 66 66 67 68 68 68 67 67 69 69 69 68 69 69 70 71
31 29 32 31 29 24 24 37 32 47 45 48 50 51 56 56 55 56 57 57 56 55 55 57 58 60 61 62 61 62 63 66 69 67 66 67 70 69 68 68 68 68 69 70
32 31 30 28 31 27 26 36 32 46 48 50 47 51 55 53 53 53 53 53 53 52 53 54 56 58 58 57 57 57 59 60 61 61 62 63 65 68 69 69 68 68 69 70
25 30 30 28 29 24 30 42 48 49 50 51 53 55 54 51 51 51 50 49 49 50 51 52 54 55 55 56 56 56 57 58 57 58 59 60 61 62 62 63 63 65 67 68
28 29 28 26 29 31 34 33 37 44 48 52 54 53 49 48 48 45 47 47 47 48 49 52 54 53 51 51 54 53 52 52 54 54 56 57 59 59 60 60 60 60 62 64
28 29 27 28 26 27 35 35 37 39 41 50 51 48 48 49 46 45 46 48 49 49 51 51 49 49 49 49 49 48 49 50 50 52 53 54 55 56 56 58 59 60 61 62
29 29 25 29 25 29 35 39 39 31 31 49 49 49 49 49 49 48 49 49 50 49 48 49 49 48 49 49 48 47 48 48 49 51 51 51 52 53 54 54 55 55 55 57
31 28 28 27 27 26 38 35 34 36 40 49 49 49 49 48 48 49 50 47 47 47 47 47 47 47 47 48 47 47 47 48 49 48 48 49 49 49 49 52 52 52 52 52
31 34 34 33 32 37 39 38 38 39 41 48 49 49 48 47 47 49 49 47 46 46 46 46 46 46 46 46 46 45 46 46 46 46 46 46 47 47 48 49 50 48 48 48
34 38 37 36 37 38 37 38 40 42 44 47 47 48 48 47 47 48 49 48 45 45 44 45 44 44 44 46 45 45 45 45 44 44 44 44 44 44 44 45 47 45 44 46
34 35 34 35 38 38 39 38 38 43 46 46 48 48 48 48 48 47 45 44 44 44 44 43 43 43 44 45 44 44 44 43 42 41 41 41 41 41 41 43 43 45 45 44
38 35 34 34 38 37 38 40 41 41 44 46 46 47 47 48 45 45 44 44 44 43 43 42 42 43 43 43 44 44 43 42 41 40 39 40 39 39 40 40 40 42 43 42

GFSCGP_sfc_dewp_111.txt.gz
Dewpoint
30 32 37 39 35 28 29 41 50 56 58 57 56 55 57 61 58 59 59 59 59 60 61 63 64 65 66 68 70 71 71 72 72 71 70 70 68 70 71 73 74 74 73 73
31 26 39 34 27 28 52 50 53 56 55 54 54 55 58 60 59 58 58 59 59 59 61 63 64 66 67 68 70 71 71 72 72 71 72 71 70 70 70 72 74 73 73 74
27 30 38 32 27 25 36 42 52 50 54 53 54 54 57 59 59 60 58 57 58 59 61 62 64 65 66 68 69 70 72 72 73 73 72 72 72 72 68 69 72 72 73 73
33 30 35 27 27 26 26 34 52 51 47 46 50 46 52 58 58 58 58 57 55 58 61 62 63 65 66 67 69 70 72 72 72 74 72 73 74 72 71 69 71 72 74 73
32 29 29 27 28 26 27 31 51 49 48 46 47 46 46 56 57 57 59 58 55 57 59 61 62 64 65 67 67 69 71 72 72 74 73 76 74 75 70 70 73 74 74 74
29 28 30 29 28 27 40 50 50 50 49 35 41 45 47 53 54 57 57 59 58 56 58 60 63 64 65 66 67 68 71 71 72 73 73 73 72 73 70 71 74 76 76 76
29 26 25 25 24 29 37 38 39 41 41 30 44 46 41 52 54 56 57 58 58 58 58 60 62 63 65 66 67 67 70 72 72 71 72 72 73 73 72 74 70 72 72 74
27 25 26 25 25 24 43 34 28 29 30 32 47 43 45 55 55 56 58 58 58 58 59 60 63 64 65 66 67 68 70 71 71 71 72 73 73 70 70 73 71 70 72 77
24 23 26 24 25 25 25 27 31 34 36 35 43 46 50 56 55 56 57 58 58 58 59 61 63 65 65 67 68 68 69 70 71 71 73 73 73 72 71 72 73 72 73 73
27 24 26 26 24 27 25 25 22 27 34 31 42 44 45 53 56 55 57 57 58 59 60 61 64 67 68 69 70 69 70 71 70 71 73 73 74 73 73 72 73 73 73 73
26 27 27 27 25 23 25 25 28 27 32 29 36 42 54 55 58 58 58 59 59 59 61 65 65 67 68 69 69 70 71 71 70 70 71 72 72 73 73 72 73 73 73 73
30 26 25 25 27 27 29 25 30 23 36 41 43 45 58 59 59 60 61 62 63 63 64 64 65 66 67 68 68 70 71 71 71 71 72 72 73 74 73 73 73 73 73 73
32 30 25 24 23 25 26 26 31 37 40 42 33 41 59 60 60 61 60 63 64 65 65 65 66 67 67 68 68 68 70 70 71 72 72 73 73 74 74 74 74 74 74 74
38 29 30 23 26 28 27 30 30 28 29 37 38 49 56 57 59 59 61 62 63 64 65 65 66 67 67 67 67 68 68 69 70 69 70 71 71 72 72 73 73 74 74 74
32 31 30 28 26 30 36 33 30 25 30 29 39 48 54 56 59 60 60 62 62 62 63 64 65 66 66 66 67 67 68 69 69 68 68 69 71 71 71 71 71 71 72 73
36 35 35 30 29 25 33 36 40 41 39 45 46 50 57 58 59 59 61 61 60 60 61 63 64 64 64 64 65 65 66 67 69 68 68 69 70 69 70 69 70 70 70 72
36 36 36 31 32 28 27 41 43 45 48 48 46 50 57 57 58 58 57 57 56 58 58 59 58 58 59 60 61 61 61 63 63 64 67 67 66 69 70 70 70 69 70 72
36 36 35 35 31 26 32 45 44 49 50 51 52 54 57 56 55 56 56 54 54 55 57 57 56 56 56 56 57 58 58 59 60 61 62 62 62 63 64 65 67 68 70 70
33 35 31 31 28 31 31 41 41 41 45 52 54 54 52 52 52 52 54 54 54 55 56 55 54 55 55 55 56 55 55 57 58 57 59 60 60 61 61 61 61 62 64 65
33 35 31 31 27 25 36 35 37 37 33 51 54 52 50 51 51 50 50 52 54 56 53 51 51 50 50 50 52 52 54 55 55 56 56 57 58 59 59 60 61 62 65 65
33 33 27 31 29 30 35 37 39 32 37 52 53 52 51 53 54 52 52 52 55 55 53 50 50 50 51 51 51 51 51 52 53 54 54 55 56 56 57 56 57 58 58 59
34 32 31 31 30 26 39 36 36 41 42 49 52 52 53 52 51 52 52 52 52 52 50 50 50 49 50 50 50 50 50 51 52 53 53 53 54 52 53 56 55 55 56 56
38 38 40 36 36 41 41 40 41 42 43 46 53 53 52 50 50 51 51 50 50 50 49 48 48 49 48 49 49 48 50 50 50 51 50 50 51 51 52 53 52 50 52 51
38 41 42 42 41 40 40 40 43 46 45 47 52 51 51 50 50 51 51 49 47 47 47 47 48 47 47 48 48 48 48 49 49 49 47 47 47 48 49 47 46 46 47 48
38 39 39 39 41 42 40 40 42 47 48 49 50 50 50 50 50 51 50 50 48 47 47 47 46 47 47 47 47 46 47 47 46 44 43 43 42 43 44 45 44 44 44 43
40 39 40 35 42 43 42 43 43 44 47 48 49 49 50 50 50 49 48 47 47 47 47 47 47 47 46 46 46 46 45 46 43 41 39 38 38 37 38 39 38 41 42 41

GFSCGP_sfc_dewp_114.txt.gz
Dewpoint
21 22 24 37 41 33 32 32 47 53 59 58 55 55 59 62 60 54 54 55 56 57 60 61 61 62 64 66 68 70 71 73 71 71 67 67 66 68 68 69 72 73 71 72
23 21 24 37 41 29 37 35 48 54 58 56 56 54 57 61 59 55 55 55 56 56 58 62 62 63 64 67 69 70 71 73 75 72 72 69 68 67 68 69 72 72 71 73
18 17 30 38 35 29 43 41 46 47 53 53 53 55 57 60 60 56 55 56 56 56 57 61 62 63 64 66 69 70 72 73 74 72 75 70 74 70 68 69 69 71 72 71
19 29 31 37 36 31 32 37 46 50 48 47 52 45 54 59 58 57 54 54 54 55 56 58 61 62 63 65 68 70 72 73 72 75 72 74 73 71 67 67 68 69 72 71
21 26 33 35 37 31 30 37 44 46 43 46 47 41 50 58 57 57 56 54 52 53 54 56 59 62 63 65 66 68 71 73 72 73 74 70 70 67 67 68 73 73 74 73
29 30 34 32 33 30 30 37 40 41 40 34 39 40 48 54 55 56 58 57 54 53 53 56 58 61 63 64 65 67 71 73 73 73 73 72 71 70 71 72 73 69 69 69
29 30 30 31 32 32 35 37 33 32 32 31 37 36 41 48 52 55 57 57 57 53 52 54 57 61 63 64 65 66 70 72 73 72 72 72 71 71 71 71 68 69 71 69
23 23 28 28 26 29 32 35 31 31 30 30 42 36 41 48 50 54 57 58 57 56 54 54 58 62 66 64 67 67 70 72 72 72 72 73 74 69 69 70 73 68 70 68
22 24 25 25 25 23 30 31 33 30 30 29 35 41 50 53 53 54 56 58 59 57 55 57 58 60 64 66 67 68 70 72 72 71 73 73 73 73 74 72 72 69 72 69
25 23 22 22 24 24 23 33 31 30 31 30 34 36 42 52 52 54 54 56 59 59 58 58 59 63 65 67 68 69 70 72 71 70 72 70 72 73 74 75 74 74 73 73
25 24 22 23 22 20 23 23 26 25 26 27 27 33 51 55 55 54 55 56 58 59 58 61 61 65 67 68 70 69 70 70 70 69 71 70 70 71 73 72 74 74 75 75
28 23 26 21 20 22 20 21 23 24 31 29 33 44 55 56 57 56 57 58 58 61 58 61 65 66 67 69 69 70 70 69 70 70 71 72 72 71 70 71 72 73 74 74
31 25 24 25 23 26 24 21 19 22 24 31 26 34 57 58 58 60 61 62 62 62 64 66 66 66 67 68 70 70 69 71 69 71 70 72 70 71 71 72 71 72 73 73
38 28 29 22 24 22 25 24 25 22 24 24 28 41 54 57 58 60 62 63 63 63 65 66 67 67 69 69 68 69 71 71 70 71 71 72 73 72 71 72 73 73 74 73
33 32 30 27 28 26 24 24 24 25 24 25 26 31 47 55 57 59 61 63 63 63 64 65 65 66 67 68 68 68 69 68 69 69 69 71 72 72 73 73 73 73 73 72
34 32 33 28 26 29 29 30 26 27 27 28 29 43 53 56 59 60 61 62 62 62 64 65 66 67 67 68 67 67 68 68 69 69 69 70 71 72 72 72 72 72 73 73
34 34 33 29 28 26 32 39 37 38 41 41 29 49 55 57 58 60 60 60 60 61 62 61 60 61 63 65 67 67 66 69 69 68 68 69 70 69 71 71 71 70 71 72
35 36 34 31 31 26 35 40 39 42 46 45 47 51 54 56 59 59 59 59 59 59 60 59 59 59 59 59 61 63 63 65 66 67 67 68 69 66 66 70 70 71 71 71
37 35 31 29 30 35 31 38 37 37 42 47 50 54 56 57 57 56 56 58 58 59 58 57 56 56 57 57 58 59 60 60 62 62 63 65 65 63 64 65 65 67 69 69
31 36 30 29 29 30 38 35 35 37 37 50 53 53 54 56 53 54 56 57 57 56 55 55 55 54 53 53 54 56 56 58 59 60 62 63 63 63 63 63 65 68 68 67
32 32 28 27 28 34 37 35 36 35 40 44 52 53 53 54 54 56 56 56 56 54 54 54 53 52 51 52 52 54 55 55 57 57 58 59 61 61 62 63 65 65 64 64
33 31 29 30 28 29 40 36 38 44 44 43 51 52 53 55 56 56 56 57 55 53 52 52 51 51 51 53 54 55 55 55 57 58 57 58 58 57 58 60 60 62 62 61
38 37 38 36 37 43 41 42 42 44 46 46 50 52 54 54 54 55 55 56 55 55 54 53 52 52 52 53 53 53 54 54 54 55 55 56 57 57 58 58 58 56 58 55
38 42 40 39 41 41 41 42 42 44 47 49 50 53 54 54 54 54 54 53 52 51 50 50 50 49 50 51 51 52 52 53 53 53 53 53 53 54 54 50 51 52 53 52
37 40 36 37 41 42 41 42 44 45 46 49 51 52 53 53 54 54 53 52 51 51 49 49 49 49 49 49 49 49 50 51 49 48 48 48 47 49 49 47 46 45 43 42
36 35 34 33 42 41 45 44 43 42 44 47 49 51 52 54 54 54 53 51 50 50 49 49 49 49 48 48 49 49 48 49 47 46 43 41 40 40 42 41 41 41 41 40

GFSCGP_sfc_dewp_117.txt.gz
Dewpoint
21 19 22 29 41 39 35 36 50 56 59 57 57 57 55 58 58 52 49 50 51 53 55 56 58 59 60 63 69 69 71 72 75 69 68 69 71 72 71 65 70 71 70 71
18 17 20 25 39 39 34 34 54 56 58 57 57 56 57 55 55 57 50 50 52 53 56 57 60 59 60 63 66 71 72 72 72 69 74 75 73 74 72 73 69 70 70 71
16 15 17 23 35 39 34 39 52 53 57 56 55 56 57 55 54 57 56 54 53 56 56 59 60 59 62 64 65 68 72 73 73 75 71 70 72 72 70 71 69 73 70 69
15 17 16 22 34 38 33 43 51 51 53 50 52 49 56 59 55 57 58 53 53 55 56 58 59 58 60 62 65 67 71 73 73 74 74 73 70 66 71 70 72 71 73 72
14 18 19 26 34 36 33 33 51 54 47 53 49 45 54 58 53 55 56 55 55 55 57 54 57 60 59 61 63 66 69 73 75 76 74 69 71 67 66 72 73 76 73 74
15 21 25 26 31 36 32 31 40 43 42 42 44 41 53 54 54 53 56 54 53 55 50 55 58 59 61 60 62 64 69 72 73 73 72 72 71 72 70 71 68 67 69 69
19 27 24 28 28 35 32 30 36 36 34 33 43 36 48 54 55 55 53 52 51 49 51 52 55 58 63 60 61 64 69 72 72 71 71 72 71 72 71 72 69 68 64 67
13 22 25 28 29 30 33 34 37 35 29 31 36 33 45 51 53 55 55 56 53 52 51 51 57 62 61 63 61 63 69 71 71 70 71 73 73 69 68 71 75 66 65 66
15 18 24 25 26 28 30 34 37 34 32 34 41 46 48 47 50 53 55 56 55 54 51 51 55 58 60 61 66 64 69 71 71 70 74 72 72 72 69 73 72 69 73 68
25 21 22 22 24 22 22 30 31 34 32 28 37 44 42 49 49 51 53 55 57 57 60 51 56 61 62 64 65 66 69 71 70 69 71 71 71 72 71 72 72 74 75 73
23 24 24 23 22 21 20 21 28 30 27 28 26 39 50 50 51 51 52 55 57 60 65 62 55 62 68 64 67 67 69 70 69 68 69 70 69 69 71 70 71 72 74 75
24 22 21 21 18 18 19 19 25 28 33 27 26 42 56 53 51 53 54 57 59 61 63 59 60 63 65 68 70 68 70 69 69 68 71 70 70 69 69 69 71 72 73 78
29 23 22 27 17 18 17 19 16 20 21 29 22 45 52 55 55 54 55 57 60 61 62 60 61 68 68 71 71 71 71 71 69 72 70 71 70 70 69 69 71 72 73 74
38 26 25 25 27 23 21 21 18 15 18 20 25 49 54 55 58 60 60 61 60 62 62 65 65 70 69 69 69 70 71 70 71 72 74 74 72 71 69 70 71 71 72 73
31 30 30 32 32 25 18 17 18 19 21 21 26 37 50 55 59 61 62 63 62 62 65 66 66 69 69 69 70 70 70 70 69 70 72 73 73 74 73 73 73 72 72 72
35 35 35 35 30 26 20 17 19 20 20 22 26 32 59 56 59 60 62 62 63 64 65 66 67 66 67 68 68 69 69 69 68 68 69 71 72 73 73 73 74 74 74 73
38 38 34 28 25 27 25 26 24 23 23 26 34 51 57 58 59 60 62 63 63 64 65 65 65 67 67 67 68 68 68 69 68 69 70 70 70 71 72 72 73 73 73 74
34 39 38 39 38 25 41 44 38 39 39 39 42 49 59 58 60 60 61 61 61 61 61 61 61 62 64 67 67 68 69 69 69 69 69 69 70 69 70 71 72 72 73 73
34 36 42 37 40 36 34 37 36 37 43 44 45 53 57 58 58 58 60 60 61 61 60 59 59 59 59 60 63 65 65 67 67 67 67 67 68 68 68 66 66 67 71 70
31 37 33 32 30 34 43 38 35 37 39 46 49 51 52 55 50 55 59 60 59 59 58 56 56 57 57 58 59 60 60 62 62 63 66 67 66 65 65 64 66 69 69 67
32 32 27 28 30 41 39 39 36 33 44 43 51 51 52 55 57 59 59 59 59 59 58 57 55 53 54 55 56 55 57 56 59 60 63 64 65 65 65 67 67 67 67 67
33 35 29 28 31 37 39 36 39 44 44 44 49 51 56 57 57 57 58 58 58 57 55 54 54 54 54 55 56 55 55 57 58 60 60 61 61 59 61 64 65 67 66 64
34 38 44 39 43 43 41 42 42 43 46 47 47 49 56 55 56 57 57 56 56 55 54 53 53 53 53 54 55 55 57 58 59 59 58 60 59 60 61 61 62 60 62 59
36 39 36 38 40 40 41 42 43 43 45 47 48 49 52 53 56 57 57 56 55 55 54 53 51 51 53 55 56 56 57 57 57 58 58 58 58 58 58 55 55 55 54 54
36 39 36 37 43 42 41 42 42 42 43 46 50 50 50 53 54 55 55 56 54 53 52 51 51 50 51 52 52 51 53 53 52 52 51 51 49 54 52 47 43 48 42 40
34 32 33 35 41 41 46 44 41 40 41 44 47 50 52 53 55 55 55 55 53 53 52 52 51 50 50 50 50 51 51 51 50 49 46 43 43 46 44 46 42 41 40 39

GFSCGP_sfc_dewp_123.txt.gz
Dewpoint
29 27 26 26 27 28 44 50 52 57 58 57 55 55 55 58 58 49 49 48 50 51 54 58 61 63 65 67 69 69 69 70 72 70 68 68 67 71 71 70 71 72 69 64
24 25 25 23 26 28 49 50 54 57 58 56 56 54 57 58 57 55 49 48 49 51 54 57 61 63 64 66 68 70 70 70 70 70 70 70 70 70 71 71 72 71 70 71
19 19 20 16 16 24 50 53 52 53 55 54 54 53 55 56 57 56 54 54 50 51 53 59 62 63 64 66 67 70 69 70 70 69 71 70 71 69 70 71 69 71 71 69
16 14 14 13 14 18 46 56 52 54 50 47 54 47 54 55 54 55 53 55 54 52 53 57 62 64 65 65 66 70 71 71 70 68 69 68 67 66 70 69 70 69 70 70
11 11 11 13 13 14 52 52 56 53 51 51 50 49 52 55 53 54 53 56 55 53 56 55 57 65 66 66 67 70 71 71 71 71 70 69 68 69 70 71 72 72 71 69
15 15 9 14 16 29 50 54 54 53 50 45 49 49 50 51 54 53 51 55 56 57 55 56 57 61 66 67 69 70 70 71 71 71 71 70 69 69 69 70 71 70 70 70
16 11 12 14 22 32 49 47 43 41 44 41 48 46 46 51 53 54 50 53 57 56 55 57 58 58 61 65 69 71 71 71 72 70 70 70 70 69 69 70 69 70 71 70
14 9 12 24 22 22 32 41 38 37 41 45 48 45 46 52 56 56 49 52 57 57 55 57 59 60 62 62 69 71 71 71 71 72 72 72 70 70 70 70 71 72 70 69
22 18 14 22 23 23 25 35 36 40 49 45 49 51 56 55 56 55 53 53 56 56 55 57 59 59 63 64 66 70 71 70 70 72 72 71 71 71 71 71 70 72 71 70
23 22 26 24 24 23 26 30 30 28 38 41 45 47 48 56 55 54 51 52 54 55 55 57 58 59 63 65 66 70 70 70 70 71 71 71 72 71 71 72 71 70 71 71
30 30 24 27 24 23 24 25 28 25 30 32 38 43 56 55 57 56 57 55 53 55 56 57 58 62 62 65 68 70 70 70 70 71 71 71 71 71 72 72 71 71 72 73
32 28 26 24 27 24 23 21 24 27 24 29 37 41 56 56 52 57 58 58 59 57 57 61 61 61 61 64 70 70 70 70 70 71 71 71 71 72 70 71 71 72 72 72
34 33 27 24 25 27 21 20 19 18 18 19 28 41 54 57 56 58 57 57 60 63 64 64 64 64 67 68 69 69 70 70 70 70 71 71 71 72 71 70 72 72 72 72
43 29 29 28 29 30 31 29 19 18 16 17 25 44 50 52 53 56 57 59 61 61 62 64 62 64 66 66 67 68 68 68 68 70 70 70 69 70 70 71 71 72 72 72
37 31 31 36 30 31 30 29 29 16 20 19 40 47 53 58 56 55 55 56 60 60 62 65 60 62 64 65 66 70 68 67 69 70 70 68 68 68 71 71 71 71 72 72
39 34 41 37 38 34 30 35 41 39 49 45 51 50 55 58 57 54 57 58 60 63 63 66 66 64 65 65 65 69 70 68 69 68 69 69 69 67 70 71 70 70 71 71
41 41 39 37 41 39 34 42 45 46 52 53 49 48 52 53 53 51 55 57 63 64 65 66 64 64 64 64 66 69 69 69 68 68 69 69 68 67 69 71 71 72 70 70
36 43 41 38 41 32 44 44 41 46 49 52 52 50 52 56 56 56 61 62 61 61 61 63 66 67 68 68 69 68 68 68 68 67 68 68 68 68 69 70 70 69 69 68
40 37 39 38 39 42 42 45 42 40 46 52 52 53 59 60 59 60 62 61 60 59 59 60 62 63 65 66 67 68 68 68 67 67 68 68 68 67 67 67 68 68 67 67
41 43 38 39 36 35 45 45 45 44 43 51 52 55 57 57 54 57 60 59 59 59 59 59 60 61 61 63 65 63 62 62 63 66 67 68 68 67 66 67 67 67 65 64
40 43 40 38 38 44 48 44 43 40 43 55 51 52 54 56 59 59 59 57 57 57 56 57 58 59 60 61 61 61 60 60 62 64 66 66 66 65 66 67 66 63 63 62
41 40 41 42 39 37 45 44 44 48 48 52 53 55 56 59 60 59 58 57 55 55 54 55 56 57 58 59 59 57 58 60 61 61 62 63 64 65 66 66 65 64 63 60
38 43 43 45 45 49 46 47 46 48 47 49 55 57 58 59 58 58 57 57 55 55 54 54 54 55 56 56 57 57 58 59 59 59 59 59 60 57 58 61 65 65 64 61
45 47 43 47 47 44 44 45 44 44 46 47 54 57 58 57 57 58 58 57 55 54 54 53 54 54 54 55 56 56 57 58 56 56 58 59 54 49 43 45 44 43 42 46
42 45 44 45 46 44 46 45 45 45 45 46 50 56 57 57 57 57 55 54 54 54 53 53 52 53 53 54 54 55 57 57 56 56 56 57 55 49 43 40 41 32 34 38
39 37 38 43 47 47 46 44 43 42 43 44 51 57 58 57 57 57 57 56 54 53 53 52 52 53 54 54 53 53 53 55 53 54 55 54 56 52 51 45 41 40 39 39

GFSCGP_sfc_dewp_129.txt.gz
Dewpoint
29 27 26 26 28 32 43 49 51 55 58 56 55 55 56 60 58 52 51 56 59 60 61 62 63 64 65 66 66 68 67 68 69 68 67 66 68 67 68 69 70 67 68 68
25 25 27 28 28 29 28 43 51 56 56 55 55 55 58 59 58 55 50 55 57 59 60 61 63 64 65 65 66 68 67 69 69 68 69 68 69 69 68 69 70 70 64 68
24 25 26 27 29 41 39 49 51 51 51 55 55 52 56 58 59 57 56 55 57 59 60 60 61 63 64 64 67 68 67 69 69 69 69 69 69 69 69 69 70 69 70 70
19 20 20 22 25 31 35 52 49 48 49 48 53 44 51 55 56 55 55 54 55 59 60 60 61 63 64 65 67 67 69 69 68 69 68 67 66 66 67 69 68 69 70 69
19 15 15 17 17 43 48 52 50 51 52 51 51 47 48 55 53 53 54 55 54 58 60 60 61 63 64 65 66 67 68 68 68 68 68 67 66 66 68 69 68 67 69 69
21 22 12 24 47 51 53 51 53 53 51 45 47 48 48 51 50 51 52 55 55 57 59 60 61 63 64 66 66 67 68 67 68 66 68 67 67 66 67 67 68 68 69 69
22 22 34 53 50 52 44 42 42 41 43 42 49 49 48 50 50 50 51 53 55 55 58 60 61 62 64 66 67 67 68 67 67 66 67 67 67 67 67 67 68 68 69 68
19 15 12 31 49 46 43 41 39 37 39 43 49 46 44 48 51 50 51 52 55 53 58 60 62 62 63 65 67 67 68 67 68 68 67 68 68 68 69 68 69 69 69 68
19 20 23 23 40 43 43 40 42 45 46 44 47 48 51 51 52 54 50 51 55 54 59 61 62 63 63 64 67 67 68 68 69 68 69 69 69 69 68 69 69 69 69 69
29 24 26 25 30 44 37 37 36 39 38 36 45 43 42 51 56 55 53 50 53 56 58 60 62 64 65 64 66 68 68 68 69 69 69 69 69 69 69 69 69 69 70 70
35 29 26 26 23 23 23 24 28 33 37 38 41 42 48 49 56 55 53 52 53 56 56 58 60 64 66 66 67 69 69 69 69 69 69 69 69 69 70 70 70 70 70 71
33 28 26 26 28 30 23 25 24 23 22 36 39 31 55 56 57 57 56 54 54 57 56 58 60 61 64 67 69 69 69 69 69 70 69 69 69 69 70 70 70 71 71 71
36 27 25 24 30 32 30 37 38 22 21 22 17 19 54 55 55 56 55 57 58 59 58 59 62 62 64 67 69 69 69 69 69 70 70 69 69 69 69 70 71 71 71 71
40 28 26 24 28 32 38 45 48 27 19 17 20 20 53 54 54 56 58 59 59 59 59 58 61 63 65 66 69 69 70 70 70 70 69 69 69 70 70 70 69 70 71 70
36 34 32 29 35 42 43 44 48 49 46 21 23 37 54 54 54 56 56 58 60 60 61 60 61 64 66 67 69 69 70 69 69 70 70 69 70 70 70 69 69 70 70 71
39 35 38 37 41 41 40 42 46 50 49 50 50 50 56 56 55 56 58 59 60 62 62 63 63 64 67 68 69 68 68 68 69 68 68 68 68 68 68 68 68 68 69 70
37 37 37 33 40 40 36 41 43 51 49 49 45 49 53 55 56 57 58 59 61 62 62 63 64 64 65 67 68 67 68 68 68 68 68 68 68 67 67 69 69 68 68 68
36 37 37 33 37 29 40 47 45 50 51 52 50 51 53 56 59 60 60 58 58 60 63 64 64 65 66 68 67 68 68 68 67 67 68 68 68 67 67 68 68 68 68 68
41 38 37 33 34 40 42 44 44 45 48 52 56 57 58 58 57 58 59 59 59 60 60 63 65 66 67 67 68 67 67 67 67 67 67 68 68 67 67 68 68 67 67 67
40 39 35 35 31 34 40 45 47 49 42 52 54 57 57 56 49 54 58 58 58 59 60 60 63 66 66 66 67 66 66 66 66 66 67 67 67 67 67 67 67 66 66 64
37 37 37 37 37 38 43 44 45 37 40 53 55 55 55 53 54 57 56 56 57 58 59 60 60 60 61 64 65 64 65 65 66 67 67 67 66 66 66 66 65 64 61 58
33 34 34 37 33 32 45 44 39 43 50 51 52 58 58 56 56 56 55 56 56 57 58 58 58 58 60 61 62 61 61 61 62 65 66 65 65 67 66 64 63 60 58 56
33 39 38 38 38 45 49 47 50 50 52 52 54 59 58 57 55 54 53 55 55 55 55 56 57 57 58 60 60 59 59 61 61 59 58 56 55 55 58 63 62 60 58 53
40 44 40 40 42 45 49 50 51 46 49 54 58 59 58 56 56 54 53 54 54 54 54 54 54 54 55 56 57 59 59 60 59 56 55 54 51 48 44 41 42 50 56 56
42 43 41 42 44 45 43 44 46 53 58 58 59 58 58 56 55 54 53 52 52 53 53 53 52 52 53 54 55 56 56 57 58 57 54 51 50 51 47 44 42 39 38 40
43 40 40 38 42 41 40 42 48 51 56 57 57 57 58 56 54 53 52 52 52 52 52 51 51 51 51 51 52 53 55 55 55 56 55 52 51 47 46 46 45 43 44 44

GFSCGP_sfc_dewp_132.txt.gz
Dewpoint
28 26 23 26 29 38 46 49 51 55 58 57 55 56 58 59 60 58 57 57 58 60 62 62 63 64 66 67 68 68 67 68 69 69 68 67 67 68 69 71 71 69 70 69
25 25 27 28 28 29 29 47 52 55 56 55 56 54 58 59 60 57 56 57 57 60 61 62 63 64 66 66 67 68 68 69 69 69 68 68 69 69 69 70 71 71 69 70
24 26 28 28 30 39 39 46 52 50 53 53 53 51 56 59 60 58 54 57 58 59 60 61 63 64 65 65 66 68 68 69 68 69 70 69 70 70 70 70 71 71 68 71
20 21 21 24 25 40 40 50 49 50 47 44 52 45 51 57 57 56 55 55 57 59 60 61 62 63 64 64 67 68 68 69 68 70 69 68 67 67 69 70 70 70 71 71
19 18 17 19 19 31 36 50 49 50 51 50 50 47 47 56 56 55 55 55 57 59 59 61 61 63 64 64 67 68 68 69 69 69 69 68 67 68 69 70 69 70 71 71
19 23 17 23 46 40 53 52 51 50 50 44 47 47 45 52 54 55 55 55 55 58 60 60 61 63 64 65 67 68 68 68 68 68 68 68 67 67 68 69 69 68 70 70
21 22 49 51 49 50 46 41 39 37 41 42 48 48 47 48 52 56 54 54 55 57 59 60 61 62 64 65 66 67 68 67 68 67 68 68 68 68 68 68 68 69 70 70
19 13 48 44 48 47 43 37 35 34 38 41 49 44 44 49 51 53 54 54 55 56 59 60 61 62 64 66 66 67 67 67 68 66 68 68 68 68 69 69 69 70 70 70
22 21 23 27 47 45 43 41 42 44 46 43 46 47 49 48 48 52 51 53 54 55 58 60 61 62 63 65 66 67 67 67 68 67 67 68 69 68 69 70 69 70 70 70
28 26 27 27 38 43 41 41 39 39 39 37 43 44 44 47 50 51 51 51 53 55 57 60 61 62 63 64 66 67 68 67 68 68 68 68 69 69 70 70 70 70 71 71
34 29 27 26 24 26 24 29 29 36 38 37 39 41 49 48 54 55 56 55 52 54 57 59 61 63 64 64 66 67 67 67 68 68 69 69 69 69 70 70 70 70 71 72
33 28 26 26 28 30 26 27 25 25 24 38 39 29 54 56 57 58 56 55 53 56 57 60 62 63 64 65 66 67 68 68 68 69 69 69 70 70 70 70 70 71 71 72
36 27 24 22 28 33 38 45 39 23 24 30 23 23 54 55 56 57 56 57 58 59 58 60 62 63 66 66 67 68 69 69 70 70 69 70 70 70 70 71 72 72 72 72
39 27 25 23 26 34 41 44 47 27 20 19 21 45 53 53 55 57 58 59 60 58 59 60 61 63 66 67 68 69 69 70 70 70 70 70 70 70 70 71 71 71 72 72
35 32 34 31 29 42 44 44 49 46 46 27 37 47 53 54 54 56 57 59 61 60 60 60 61 63 64 67 69 69 70 70 70 70 70 70 70 71 71 71 71 71 72 71
39 35 36 38 41 42 42 44 48 49 49 50 50 50 55 54 56 57 59 59 60 62 61 61 62 64 65 65 68 69 70 70 70 70 70 70 70 70 71 70 70 70 71 71
36 34 35 31 39 41 35 42 44 50 50 50 46 50 53 54 56 58 58 58 60 63 62 63 64 64 66 68 68 69 69 69 70 69 69 69 69 69 69 69 69 68 69 70
35 36 35 32 36 30 36 46 46 50 51 51 50 52 55 56 59 59 59 58 59 62 63 64 65 66 68 68 68 68 68 68 68 67 68 68 68 67 67 69 69 69 69 69
39 37 35 32 33 37 41 43 44 47 48 52 54 55 58 58 57 57 59 59 59 60 60 63 65 67 67 67 67 67 67 67 67 67 67 68 68 67 67 67 68 68 68 67
39 39 35 34 30 30 38 44 48 49 42 51 57 56 56 57 49 54 57 58 58 59 60 61 65 65 66 66 67 66 66 66 66 66 67 68 68 67 67 68 68 68 67 64
35 35 35 35 33 36 41 44 47 39 40 52 56 58 57 53 53 56 57 57 58 59 59 60 61 61 62 65 65 64 65 65 66 67 67 67 67 66 67 67 66 64 62 59
33 32 34 37 33 32 47 45 42 45 52 53 55 57 56 57 56 56 55 55 57 57 57 59 59 59 61 62 64 63 61 63 66 66 66 66 66 67 66 64 62 61 59 56
34 37 37 38 38 43 47 47 49 51 52 51 57 57 57 55 55 54 55 55 54 55 55 57 57 58 59 60 61 59 61 62 62 61 59 59 60 61 64 63 61 59 57 53
40 42 39 39 40 44 49 49 51 49 53 54 59 58 57 55 55 54 54 55 54 54 54 55 56 55 56 58 59 59 60 59 57 56 55 55 54 52 51 50 52 57 56 53
39 42 40 40 42 45 45 49 50 57 58 59 59 58 57 55 54 53 53 53 53 53 52 53 53 54 54 55 56 57 59 59 56 55 54 54 53 50 49 45 43 42 41 42
43 41 39 38 43 42 43 45 50 56 57 58 58 57 57 55 54 53 53 53 53 53 52 52 52 52 52 53 53 54 56 58 57 55 54 51 51 50 50 49 47 44 44 44

GFSCGP_sfc_dewp_135.txt.gz
Dewpoint
27 27 28 28 41 42 45 48 51 55 52 53 52 55 57 60 61 59 59 59 59 60 61 63 63 65 66 67 68 70 70 72 71 70 70 69 68 68 69 72 73 72 72 71
28 29 29 28 29 30 43 45 51 53 52 50 53 52 57 60 60 60 58 58 58 59 61 63 63 64 65 67 68 70 71 72 71 70 71 69 70 69 68 72 73 71 70 71
29 28 28 28 28 28 31 37 50 46 50 53 48 53 56 59 60 61 59 59 58 59 59 62 63 63 65 66 68 70 71 72 72 72 71 72 71 71 69 70 71 72 70 71
25 22 25 25 26 33 32 40 49 46 44 41 50 43 51 57 58 59 59 55 57 58 60 60 62 63 64 66 67 70 71 72 72 73 71 73 68 67 66 69 71 71 71 72
21 18 19 19 20 32 39 49 48 47 48 47 46 45 47 55 56 57 57 56 55 57 59 59 61 63 64 65 66 68 71 72 72 72 73 70 70 72 69 70 72 73 73 73
21 22 20 25 46 30 51 48 47 48 50 43 46 46 46 52 54 57 58 57 55 56 58 59 61 63 63 64 65 67 70 71 72 72 72 72 72 71 69 70 70 69 70 71
23 22 44 49 46 49 48 40 42 40 42 40 46 47 46 48 52 54 58 57 55 56 58 60 61 62 64 64 65 66 70 71 71 71 71 72 72 72 72 72 70 70 68 69
21 18 43 49 45 42 43 33 31 32 37 39 47 42 39 48 50 52 55 57 56 55 58 60 61 62 63 64 66 67 69 70 70 71 71 72 72 69 69 71 69 69 68 68
27 24 28 40 48 46 45 40 39 38 44 42 43 44 44 46 47 54 55 55 56 55 57 60 61 61 63 65 66 67 69 70 70 70 71 72 72 72 70 72 72 70 72 70
29 28 28 27 39 43 43 42 40 43 35 33 42 41 35 45 47 52 52 55 55 56 57 59 61 63 63 64 66 67 68 70 70 69 70 69 71 72 72 72 72 72 72 72
30 30 28 29 29 37 36 38 36 36 39 33 36 37 51 53 55 51 52 54 55 56 57 61 61 63 65 64 66 67 68 69 69 69 70 70 69 70 71 71 72 73 73 73
33 29 28 26 29 31 27 31 32 31 30 38 39 34 54 56 57 56 57 57 56 56 57 60 61 62 63 66 66 67 68 68 69 69 70 70 70 70 70 71 72 72 73 74
35 30 26 27 30 34 40 45 41 26 26 34 26 28 54 55 56 57 56 56 57 59 58 59 61 63 65 65 68 67 69 69 69 70 70 70 70 71 71 71 73 73 73 73
41 30 30 25 29 35 39 42 44 28 26 25 26 30 52 53 56 57 58 60 60 59 59 60 62 63 66 66 67 69 69 70 70 70 71 71 71 71 71 72 73 73 74 74
38 31 34 34 35 33 42 41 45 43 48 32 35 41 49 54 55 57 59 61 61 59 61 62 62 64 66 67 68 69 70 71 71 71 71 72 72 72 73 73 73 73 73 75
41 33 40 36 40 41 40 43 46 47 48 49 50 49 56 55 56 58 59 59 61 61 60 61 63 65 66 67 68 69 70 71 71 71 71 72 73 73 73 73 73 74 73 74
40 37 37 31 39 42 38 40 45 47 49 48 47 50 54 54 56 57 57 59 61 63 63 63 63 65 66 66 69 70 70 71 72 71 71 72 73 72 73 73 73 73 73 74
40 40 39 31 38 32 39 46 46 48 49 51 51 53 55 56 59 59 59 59 60 61 63 65 66 67 68 69 69 71 71 71 72 72 72 72 72 72 72 73 73 73 72 72
41 40 36 35 36 36 39 43 45 48 46 52 52 55 56 57 57 57 58 59 59 60 62 65 67 68 69 69 70 70 70 70 70 70 70 69 69 69 69 69 70 70 70 70
42 43 36 37 33 29 37 43 47 48 43 54 54 55 56 57 52 55 57 58 59 60 61 63 66 67 67 68 69 68 68 68 69 67 68 69 69 68 68 68 68 69 69 66
36 41 39 37 35 36 41 45 46 41 42 53 56 56 58 57 57 58 58 58 59 60 61 62 65 64 65 65 67 67 68 67 68 68 69 68 68 68 68 68 67 66 64 61
36 37 39 42 39 33 46 45 43 48 54 55 57 59 59 58 57 57 56 57 57 58 59 60 61 62 63 65 66 65 65 67 68 67 68 68 68 68 67 64 63 63 61 59
39 39 41 42 40 46 47 49 49 51 53 54 58 57 58 57 57 57 57 57 57 57 58 59 59 59 61 62 63 62 62 64 66 64 62 62 62 62 65 63 61 59 59 58
43 43 40 44 42 45 48 51 52 50 53 55 59 58 57 57 56 57 57 56 56 57 57 58 58 59 59 61 62 61 61 61 59 59 57 55 55 54 55 56 60 60 60 58
41 44 43 43 45 46 47 50 51 56 56 58 59 58 57 57 56 55 55 54 55 56 57 58 58 57 58 59 61 61 59 58 57 56 56 55 54 52 50 48 48 46 45 48
44 45 39 34 47 48 48 50 55 56 54 58 58 57 57 56 55 55 55 55 54 53 55 55 56 55 55 56 56 58 59 57 55 54 54 53 54 54 54 52 49 46 45 44

GFSCGP_sfc_dewp_138.txt.gz
Dewpoint
27 28 27 36 38 39 42 41 46 52 56 54 54 56 57 60 61 59 56 55 56 56 59 61 61 62 63 65 67 69 70 71 70 68 67 66 65 67 68 69 72 73 71 71
29 24 30 32 34 35 41 40 47 49 50 49 52 53 57 60 60 60 55 56 56 56 57 60 62 62 63 65 67 69 70 71 70 68 69 67 67 65 66 69 72 70 69 71
21 25 29 30 29 30 32 34 42 42 49 47 46 51 55 59 60 61 58 55 55 56 56 59 61 62 63 65 67 68 70 72 72 72 70 73 76 69 66 69 68 70 70 70
24 27 29 29 29 30 29 31 40 42 42 35 45 43 47 56 58 59 59 56 55 55 56 57 59 61 63 64 66 68 70 72 72 74 72 72 67 64 64 66 67 69 70 71
22 24 23 24 27 29 31 38 42 42 42 41 43 40 47 54 57 58 59 58 55 55 54 56 58 61 62 64 65 67 71 72 70 73 73 68 68 65 66 66 72 72 73 72
19 21 22 21 28 24 40 42 44 45 42 35 40 40 41 52 51 58 59 58 57 54 53 55 57 60 61 63 64 65 69 72 71 73 71 71 69 69 65 67 68 67 66 68
19 18 24 33 30 27 38 38 36 34 33 32 40 43 38 43 50 52 56 57 57 57 53 54 57 59 62 63 64 64 69 71 72 72 70 70 71 71 72 73 69 68 65 65
16 16 27 36 31 30 31 30 26 27 26 32 41 38 39 43 46 51 52 55 58 57 55 54 58 60 62 63 65 65 68 71 71 71 72 74 73 70 65 68 64 65 65 65
23 18 25 36 36 37 33 35 28 31 32 31 33 38 41 42 45 49 49 54 57 56 54 55 57 60 61 63 65 66 68 71 71 70 72 72 72 71 69 70 71 67 69 66
30 25 21 27 36 38 39 36 30 28 35 29 34 37 35 40 46 46 51 50 55 56 55 55 58 61 61 62 64 66 68 70 70 69 70 70 71 73 72 73 71 71 71 71
30 28 27 28 32 30 34 35 34 37 43 34 29 32 45 47 53 51 52 54 55 57 57 56 58 60 63 62 64 65 67 69 70 70 69 70 70 70 71 70 71 72 72 72
33 26 25 23 29 32 31 31 34 30 32 29 30 30 53 56 56 54 51 54 57 57 56 58 57 59 61 64 65 66 67 68 69 70 70 70 70 71 69 70 70 71 73 75
33 27 25 24 25 32 31 34 32 27 24 30 24 30 53 56 57 57 53 55 61 60 58 59 61 60 61 64 66 67 68 68 68 69 69 70 70 70 70 70 71 71 73 73
40 27 29 23 30 31 32 35 37 29 23 22 22 25 42 52 56 57 58 60 61 60 60 60 60 61 63 65 67 68 68 69 69 69 70 71 71 71 70 71 72 72 73 74
31 29 30 28 27 29 29 35 35 35 30 31 30 34 33 49 55 58 59 60 60 60 59 60 59 60 65 66 67 68 69 70 69 70 71 72 73 72 72 72 73 73 73 76
33 31 31 28 26 30 29 32 36 37 39 38 39 43 52 55 57 58 59 60 61 61 60 60 61 63 64 66 68 68 70 70 71 71 71 72 73 74 73 73 73 73 73 74
32 26 30 24 32 33 33 32 33 34 42 41 38 49 54 55 56 58 59 60 61 63 62 61 62 63 66 66 68 68 69 71 72 72 72 72 73 74 75 73 73 74 74 74
31 35 31 26 31 28 32 42 40 41 41 45 47 50 54 56 58 59 59 60 60 61 63 65 65 66 68 65 68 70 71 72 72 72 72 73 73 73 74 73 73 74 76 75
39 37 31 29 24 26 30 35 40 41 38 45 49 54 55 57 58 58 59 60 60 61 62 67 68 68 69 69 70 71 71 71 71 71 72 73 73 73 73 73 73 73 74 74
38 40 35 31 31 28 37 41 43 44 39 43 51 54 56 56 52 56 59 59 60 61 62 66 67 67 69 71 71 71 70 71 71 71 71 71 72 69 70 69 70 70 70 69
33 36 32 30 33 32 37 41 45 39 41 51 52 54 56 55 58 59 59 59 60 61 62 65 65 65 65 68 69 67 67 67 69 69 70 70 69 69 70 70 70 70 67 64
31 30 29 33 32 30 42 42 42 48 52 52 55 54 56 59 58 58 58 59 59 60 61 63 64 65 65 67 68 67 67 68 69 69 69 69 70 69 67 65 64 62 62 59
33 34 36 33 32 45 46 46 48 50 52 54 54 56 58 56 57 58 58 59 59 60 60 61 62 63 65 66 67 65 65 67 67 68 67 66 65 65 67 64 63 61 60 58
40 44 37 42 37 41 44 46 50 50 50 52 55 57 56 56 57 58 58 59 60 59 60 60 60 60 61 63 63 64 64 67 65 63 61 62 60 57 58 61 63 62 61 60
37 45 41 39 40 42 46 49 50 51 52 54 57 56 56 56 57 57 57 59 59 60 60 60 60 59 60 62 61 61 61 62 62 60 58 56 55 53 50 50 51 53 51 53
41 37 36 31 37 41 49 50 53 53 53 54 56 56 56 56 56 57 57 56 58 58 59 59 59 58 59 61 61 61 60 59 57 56 56 56 56 55 53 53 52 45 45 44

GFSCGP_sfc_dewp_141.txt.gz
Dewpoint
20 23 23 29 35 38 47 45 49 52 55 54 52 54 57 59 59 57 58 56 53 54 58 57 58 60 60 65 67 69 71 70 68 67 66 67 64 69 70 72 71 72 70 71
18 20 23 28 36 33 31 39 43 47 52 51 54 53 57 59 59 58 57 58 56 54 59 58 59 59 60 66 67 70 71 71 70 66 73 71 72 64 70 71 71 70 70 70
18 17 29 29 32 29 27 32 41 42 46 45 48 52 55 58 60 60 58 59 63 61 62 58 58 59 61 64 67 68 70 71 71 74 71 72 74 71 65 70 68 69 69 69
19 25 27 25 26 28 25 29 32 36 39 46 43 40 52 55 58 59 57 60 60 60 58 57 57 57 61 64 65 67 70 71 71 73 73 72 67 67 66 66 69 69 70 69
20 23 23 24 24 27 30 36 35 37 36 40 41 34 46 55 56 57 58 57 58 58 56 54 55 59 59 63 64 65 70 71 72 72 74 70 71 69 64 70 73 74 73 71
19 19 20 18 18 24 27 32 36 37 37 34 35 34 46 54 53 56 58 57 55 57 54 54 58 59 59 60 64 63 69 71 71 71 71 73 72 70 65 70 67 66 68 68
16 16 15 18 22 24 22 28 30 31 30 30 38 31 41 45 49 54 56 57 56 56 55 57 56 59 61 61 63 64 69 73 71 70 70 70 72 72 69 69 66 69 63 63
16 14 18 23 25 25 26 26 27 34 30 36 37 34 42 40 45 52 54 56 56 53 54 55 57 59 60 62 63 63 68 71 72 70 71 73 72 67 67 70 66 63 65 63
23 18 19 25 24 28 29 25 23 26 31 34 36 36 38 40 47 53 54 53 54 55 54 53 53 62 58 62 63 65 68 71 71 69 73 71 72 71 70 74 72 66 72 70
28 24 21 22 24 29 30 39 25 23 33 33 36 33 40 40 46 48 45 47 53 56 57 52 54 58 60 60 61 64 67 70 70 69 70 69 70 71 71 73 72 73 74 69
25 26 28 25 24 23 28 24 33 29 39 42 39 39 40 42 47 46 47 51 52 56 56 55 55 57 64 62 63 63 66 69 69 69 70 70 70 70 71 70 71 71 72 72
30 25 24 27 25 32 40 41 34 25 38 34 44 43 49 51 50 50 50 53 56 61 54 54 55 56 57 65 65 64 65 67 69 69 70 69 70 70 69 70 70 71 73 73
33 26 22 21 24 27 25 22 24 44 36 38 35 37 51 54 54 52 51 53 58 60 62 60 55 58 60 60 66 65 68 67 68 69 68 69 70 70 70 70 71 71 73 73
35 20 24 20 30 32 32 33 37 31 41 31 29 36 47 52 55 57 57 54 57 62 62 62 60 61 62 65 67 68 67 68 68 69 71 73 72 72 70 71 72 72 74 76
26 25 25 24 24 25 27 38 42 34 28 27 32 34 30 47 54 57 58 59 58 61 61 62 62 60 62 64 68 69 68 70 69 70 70 73 75 74 74 74 74 72 74 75
29 28 27 26 22 18 21 23 25 31 35 35 42 39 49 55 57 59 58 59 60 60 61 63 62 62 63 63 65 68 70 70 70 72 70 73 74 74 74 74 74 74 74 73
28 27 26 24 22 24 24 24 24 25 32 34 40 52 53 54 56 60 59 60 61 63 64 63 61 62 65 63 68 67 69 70 73 72 72 73 74 75 76 74 74 74 74 75
28 31 30 23 26 23 24 34 35 36 34 38 46 51 54 58 59 59 59 60 61 62 63 66 65 66 65 65 68 69 69 73 73 73 73 74 74 74 74 74 75 77 77 77
29 32 28 27 25 23 21 27 29 29 33 34 49 45 54 56 56 58 59 60 61 61 63 66 69 67 67 70 70 72 71 73 72 71 72 73 72 73 73 73 76 77 76 76
29 35 31 29 28 32 33 38 40 36 33 37 40 45 54 56 55 59 59 60 61 62 63 66 68 70 69 70 71 71 71 71 69 71 72 73 73 73 72 72 73 73 74 72
32 36 31 29 28 30 39 40 38 32 36 47 47 46 53 56 60 60 60 61 62 62 63 65 66 67 69 71 69 70 70 70 71 71 72 71 70 70 70 71 72 72 71 69
31 29 27 30 28 28 40 38 36 46 47 49 50 54 58 59 58 59 60 60 61 62 63 64 65 65 67 69 69 68 68 69 70 70 70 70 70 69 68 69 68 63 61 59
31 31 30 38 33 40 40 40 43 45 48 48 52 55 61 55 56 58 59 60 60 61 61 64 65 65 66 67 68 67 69 70 70 69 68 67 66 67 67 66 64 62 60 58
34 36 34 34 34 36 37 40 42 43 46 48 51 56 53 55 56 58 59 60 60 60 61 62 63 63 63 65 65 65 68 68 67 65 64 62 61 63 63 63 63 62 61 60
32 42 40 36 37 38 38 41 45 47 47 49 52 54 54 57 55 57 59 60 60 60 60 61 61 61 61 62 62 62 66 66 63 60 60 60 59 56 55 53 52 57 52 53
31 36 32 30 38 40 43 46 50 52 49 51 52 53 54 56 57 58 59 59 60 61 60 59 60 61 62 62 61 61 61 63 62 60 60 58 58 58 58 58 53 45 45 43

GFSCGP_sfc_dewp_144.txt.gz
Dewpoint
11 18 21 22 38 41 45 47 49 49 55 51 49 53 53 56 57 59 59 58 55 54 59 59 60 59 60 63 68 68 72 73 74 73 73 69 72 73 71 72 72 75 75 74
13 17 20 22 32 41 43 49 51 49 52 52 52 53 54 58 57 57 57 58 58 62 58 60 60 62 61 66 69 71 73 74 73 73 75 73 75 73 73 74 75 75 73 74
17 17 19 22 29 32 30 41 47 43 45 46 52 53 55 57 58 57 56 58 60 63 63 61 60 61 64 66 68 71 73 74 74 75 73 75 73 72 70 75 73 73 73 72
18 23 25 26 25 25 24 36 36 39 35 43 43 43 52 54 56 55 53 55 60 62 64 59 60 58 62 65 68 71 73 73 73 75 75 75 73 69 71 72 73 73 74 74
18 21 23 24 22 24 25 34 34 34 34 33 38 37 50 52 52 53 53 50 56 61 60 62 63 59 63 65 66 70 72 74 73 76 75 75 73 72 75 75 74 78 76 76
19 19 20 19 21 23 25 27 30 33 33 30 31 36 51 51 53 54 54 54 55 56 58 63 64 62 62 63 64 68 72 73 75 74 74 74 73 72 72 73 71 73 73 73
16 14 15 18 17 20 20 20 23 28 33 36 37 34 46 52 53 53 55 57 55 56 58 61 59 60 61 64 65 66 72 72 73 73 73 74 74 74 71 71 70 71 71 70
19 15 15 15 16 20 22 17 19 36 37 41 40 37 40 40 50 52 56 55 53 55 58 58 59 61 65 65 66 68 72 72 72 72 73 75 75 73 72 72 74 73 71 71
26 18 18 20 22 22 28 25 26 26 39 33 37 41 41 43 50 52 52 53 55 56 57 57 57 63 64 66 66 69 72 72 72 71 74 74 74 74 75 74 76 72 77 71
26 25 25 20 23 23 24 34 30 29 36 34 41 41 46 49 52 53 53 54 56 56 56 56 57 60 64 65 64 69 71 72 72 72 72 71 73 74 74 75 76 76 78 73
23 24 24 23 23 22 24 26 29 32 39 34 38 44 49 53 53 53 50 53 56 57 56 57 58 59 61 65 65 66 70 71 71 71 71 72 72 72 74 74 74 76 77 77
24 26 25 24 24 25 27 26 25 27 45 42 37 39 51 52 54 50 50 52 52 61 61 60 58 60 61 65 65 64 69 70 70 70 73 72 72 73 72 72 73 74 75 78
32 26 21 21 23 26 28 28 24 29 36 42 38 37 50 47 52 50 51 53 60 62 62 63 61 60 62 66 69 68 69 69 69 71 71 71 72 73 73 73 74 75 76 76
37 17 19 18 24 27 29 29 28 29 32 36 35 34 43 47 51 53 52 51 58 61 63 64 63 66 62 67 67 69 69 70 70 70 71 72 73 74 72 74 75 75 77 76
20 23 23 21 20 20 22 23 29 29 31 35 36 40 44 51 53 55 56 52 53 55 60 62 62 66 66 68 68 68 70 70 70 71 73 74 75 75 75 75 76 76 76 76
27 29 27 23 19 19 15 12 17 27 29 31 43 42 50 54 61 57 57 57 57 54 56 60 63 64 67 66 69 71 71 71 72 72 73 75 75 75 75 75 75 76 75 76
30 28 29 24 20 20 20 20 20 22 24 31 28 48 51 51 56 58 60 60 62 64 62 64 63 64 66 65 67 64 72 73 73 74 74 75 75 75 76 76 76 76 76 76
28 32 28 24 26 21 21 27 27 30 33 35 39 51 51 54 54 57 59 60 61 62 64 66 69 67 66 64 65 71 71 74 74 74 74 74 75 75 75 76 75 74 76 76
25 28 26 25 24 26 26 35 33 35 35 28 38 47 49 49 52 58 59 60 61 63 64 66 68 70 69 68 71 73 73 73 73 73 74 74 75 75 74 75 76 77 76 75
27 34 30 28 26 26 30 36 39 38 33 42 41 47 53 56 53 57 60 61 62 62 64 66 68 70 70 70 72 71 73 71 73 73 74 74 73 73 73 73 74 74 72 70
31 32 28 27 28 27 39 39 40 32 41 45 45 53 52 54 56 61 61 61 63 63 64 66 68 68 69 71 70 68 68 68 70 71 72 72 71 73 73 73 72 72 70 66
30 31 29 28 32 32 41 38 41 48 48 47 47 53 58 59 60 58 59 59 62 62 64 65 66 67 69 71 70 68 67 69 69 69 69 69 70 69 68 68 66 64 62 60
28 31 30 32 42 48 41 37 39 44 45 41 48 56 54 57 59 59 60 61 61 61 62 65 65 65 67 67 69 69 69 70 69 68 67 67 68 67 68 65 63 62 62 60
39 37 32 37 34 33 36 36 37 38 40 41 46 53 51 53 59 59 60 60 60 61 61 63 64 64 64 65 66 69 68 67 66 64 64 65 65 64 64 63 62 61 61 60
37 39 39 41 39 36 38 43 44 43 44 45 46 55 55 58 59 59 60 60 60 61 61 62 62 62 62 63 64 67 67 65 63 64 63 61 60 59 56 53 52 58 53 53
39 35 31 33 41 40 42 43 45 47 49 51 50 58 59 58 56 59 60 60 61 61 61 61 62 61 62 61 61 64 66 65 62 61 59 60 59 58 57 56 53 45 44 43